Time,TemperatureF,DewpointF,PressureIn,WindDirection,WindDirectionDegrees,WindSpeedMPH,WindSpeedGustMPH,Humidity,HourlyPrecipIn,Conditions,Clouds,dailyrainin,SoftwareType,DateUTC
2013-11-01 00:00:00,29.7,19.4,30.15,SW,225,0.0,0.0,65,0.00,,SKC,0.58,VWS V14.00,2013-11-01 07:00:00,
2013-11-01 00:02:00,29.5,19.2,30.15,SW,225,0.0,0.0,65,0.00,,SKC,0.00,VWS V14.00,2013-11-01 07:02:00,
2013-11-01 00:04:00,29.5,19.2,30.15,SW,225,0.0,0.0,65,0.00,,SKC,0.00,VWS V14.00,2013-11-01 07:04:00,
2013-11-01 00:05:00,29.3,19.0,30.15,SW,225,0.0,0.0,65,0.00,,SKC,0.00,VWS V14.00,2013-11-01 07:05:00,
2013-11-01 00:06:00,29.3,19.0,30.15,SW,225,0.0,0.0,65,0.00,,SKC,0.00,VWS V14.00,2013-11-01 07:06:00,
2013-11-01 00:07:00,29.3,19.0,30.15,SW,225,0.0,0.0,65,0.00,,SKC,0.00,VWS V14.00,2013-11-01 07:07:00,
2013-11-01 00:09:00,29.3,19.0,30.15,SW,225,0.0,0.0,65,0.00,,SKC,0.00,VWS V14.00,2013-11-01 07:09:00,
2013-11-01 00:10:00,29.0,18.7,30.15,SW,225,0.0,0.0,65,0.00,,SKC,0.00,VWS V14.00,2013-11-01 07:10:00,
2013-11-01 00:11:00,29.0,18.7,30.15,SW,225,0.0,0.0,65,0.00,,SKC,0.00,VWS V14.00,2013-11-01 07:11:00,
2013-11-01 00:12:00,29.0,18.7,30.15,SW,225,0.0,0.0,65,0.00,,SKC,0.00,VWS V14.00,2013-11-01 07:12:00,
2013-11-01 00:14:00,29.0,19.1,30.15,SW,225,0.0,0.0,66,0.00,,SKC,0.00,VWS V14.00,2013-11-01 07:14:00,
2013-11-01 00:15:00,29.0,19.1,30.15,SW,225,0.0,0.0,66,0.00,,SKC,0.00,VWS V14.00,2013-11-01 07:15:00,
2013-11-01 00:16:00,29.0,19.1,30.15,SW,225,0.0,0.0,66,0.00,,SKC,0.00,VWS V14.00,2013-11-01 07:16:00,
2013-11-01 00:17:00,29.0,19.1,30.15,SW,225,0.0,0.0,66,0.00,,SKC,0.00,VWS V14.00,2013-11-01 07:17:00,
2013-11-01 00:19:00,29.0,19.1,30.15,SW,225,0.0,0.0,66,0.00,,SKC,0.00,VWS V14.00,2013-11-01 07:19:00,
2013-11-01 00:20:00,29.0,19.1,30.15,SW,225,0.0,0.0,66,0.00,,SKC,0.00,VWS V14.00,2013-11-01 07:20:00,
2013-11-01 00:21:00,28.8,18.5,30.15,SW,225,1.1,1.1,65,0.00,,SKC,0.00,VWS V14.00,2013-11-01 07:21:00,
2013-11-01 00:22:00,29.0,18.7,30.15,SW,225,1.3,1.3,65,0.00,,SKC,0.00,VWS V14.00,2013-11-01 07:22:00,
2013-11-01 00:24:00,28.8,19.2,30.15,SW,225,0.0,0.0,67,0.00,,SKC,0.00,VWS V14.00,2013-11-01 07:24:00,
2013-11-01 00:25:00,28.8,19.6,30.15,SW,225,0.0,0.0,68,0.00,,SKC,0.00,VWS V14.00,2013-11-01 07:25:00,
2013-11-01 00:27:00,28.6,19.4,30.15,SW,225,0.0,0.0,68,0.00,,SKC,0.00,VWS V14.00,2013-11-01 07:27:00,
2013-11-01 00:29:00,28.3,19.1,30.15,SW,225,0.0,0.0,68,0.00,,SKC,0.00,VWS V14.00,2013-11-01 07:29:00,
2013-11-01 00:30:00,28.3,19.1,30.15,SW,225,0.0,0.0,68,0.00,,SKC,0.00,VWS V14.00,2013-11-01 07:30:00,
2013-11-01 00:32:00,28.3,19.1,30.15,SW,225,0.0,0.0,68,0.00,,SKC,0.00,VWS V14.00,2013-11-01 07:32:00,
2013-11-01 00:35:00,28.3,19.1,30.15,SW,225,0.0,0.0,68,0.00,,SKC,0.00,VWS V14.00,2013-11-01 07:35:00,
2013-11-01 00:36:00,28.1,18.9,30.15,SW,225,0.0,0.0,68,0.00,,SKC,0.00,VWS V14.00,2013-11-01 07:36:00,
2013-11-01 00:37:00,28.1,18.9,30.15,SW,225,0.0,0.0,68,0.00,,SKC,0.00,VWS V14.00,2013-11-01 07:37:00,
2013-11-01 00:38:00,27.9,18.4,30.15,SW,225,0.0,0.0,67,0.00,,SKC,0.00,VWS V14.00,2013-11-01 07:38:00,
2013-11-01 00:40:00,27.9,18.7,30.15,SW,225,0.0,0.0,68,0.00,,SKC,0.00,VWS V14.00,2013-11-01 07:40:00,
2013-11-01 00:41:00,27.9,18.7,30.15,SW,225,0.0,0.0,68,0.00,,SKC,0.00,VWS V14.00,2013-11-01 07:41:00,
2013-11-01 00:42:00,27.9,18.7,30.15,SW,225,0.0,0.0,68,0.00,,SKC,0.00,VWS V14.00,2013-11-01 07:42:00,
2013-11-01 00:43:00,27.9,19.1,30.15,SW,225,0.0,0.0,69,0.00,,SKC,0.00,VWS V14.00,2013-11-01 07:43:00,
2013-11-01 00:45:00,28.1,19.2,30.15,SW,225,0.0,0.0,69,0.00,,SKC,0.00,VWS V14.00,2013-11-01 07:45:00,
2013-11-01 00:47:00,28.1,19.2,30.15,SW,225,0.0,0.0,69,0.00,,SKC,0.00,VWS V14.00,2013-11-01 07:47:00,
2013-11-01 00:48:00,28.1,18.9,30.15,SW,225,0.0,0.0,68,0.00,,SKC,0.00,VWS V14.00,2013-11-01 07:48:00,
2013-11-01 00:50:00,28.1,18.5,30.15,SW,225,0.0,0.0,67,0.00,,SKC,0.00,VWS V14.00,2013-11-01 07:50:00,
2013-11-01 00:51:00,28.1,18.5,30.15,SW,225,0.0,0.0,67,0.00,,SKC,0.00,VWS V14.00,2013-11-01 07:51:00,
2013-11-01 00:52:00,28.3,18.7,30.15,SW,225,0.0,0.0,67,0.00,,SKC,0.00,VWS V14.00,2013-11-01 07:52:00,
2013-11-01 00:53:00,28.3,18.7,30.15,SW,225,0.0,0.0,67,0.00,,SKC,0.00,VWS V14.00,2013-11-01 07:53:00,
2013-11-01 00:54:00,28.3,18.7,30.15,SW,225,0.0,0.0,67,0.00,,SKC,0.00,VWS V14.00,2013-11-01 07:54:00,
2013-11-01 00:55:00,28.3,18.7,30.15,SW,225,0.0,0.0,67,0.00,,SKC,0.00,VWS V14.00,2013-11-01 07:55:00,
2013-11-01 00:56:00,28.3,18.7,30.15,SW,225,0.0,0.0,67,0.00,,SKC,0.00,VWS V14.00,2013-11-01 07:56:00,
2013-11-01 00:57:00,28.3,18.7,30.15,SW,225,0.0,0.0,67,0.00,,SKC,0.00,VWS V14.00,2013-11-01 07:57:00,
2013-11-01 00:58:00,28.3,19.1,30.15,SW,225,0.0,0.0,68,0.00,,SKC,0.00,VWS V14.00,2013-11-01 07:58:00,
2013-11-01 00:59:00,28.3,19.1,30.15,SW,225,0.0,0.0,68,0.00,,SKC,0.00,VWS V14.00,2013-11-01 07:59:00,
2013-11-01 01:00:00,28.3,19.1,30.15,SW,225,0.0,0.0,68,0.00,,SKC,0.00,VWS V14.00,2013-11-01 08:00:00,
2013-11-01 01:01:00,28.3,19.1,30.15,SW,225,0.0,0.0,68,0.00,,SKC,0.00,VWS V14.00,2013-11-01 08:01:00,
2013-11-01 01:03:00,28.4,19.2,30.15,SW,225,0.0,0.0,68,0.00,,SKC,0.00,VWS V14.00,2013-11-01 08:03:00,
2013-11-01 01:04:00,28.4,19.2,30.15,SW,225,0.0,0.0,68,0.00,,SKC,0.00,VWS V14.00,2013-11-01 08:04:00,
2013-11-01 01:05:00,28.4,19.6,30.15,SW,225,0.0,0.0,69,0.00,,SKC,0.00,VWS V14.00,2013-11-01 08:05:00,
2013-11-01 01:06:00,28.4,19.6,30.15,SW,225,0.0,0.0,69,0.00,,SKC,0.00,VWS V14.00,2013-11-01 08:06:00,
2013-11-01 01:08:00,28.4,19.6,30.15,SW,225,0.0,0.0,69,0.00,,SKC,0.00,VWS V14.00,2013-11-01 08:08:00,
2013-11-01 01:09:00,28.6,19.8,30.15,SW,225,0.0,0.0,69,0.00,,SKC,0.00,VWS V14.00,2013-11-01 08:09:00,
2013-11-01 01:10:00,28.6,19.8,30.15,SW,225,0.0,0.0,69,0.00,,SKC,0.00,VWS V14.00,2013-11-01 08:10:00,
2013-11-01 01:11:00,28.6,19.8,30.15,SW,225,0.0,0.0,69,0.00,,SKC,0.00,VWS V14.00,2013-11-01 08:11:00,
2013-11-01 01:13:00,28.6,19.8,30.15,SW,225,0.0,0.0,69,0.00,,SKC,0.00,VWS V14.00,2013-11-01 08:13:00,
2013-11-01 01:14:00,28.6,20.1,30.15,SW,225,0.0,0.0,70,0.00,,SKC,0.00,VWS V14.00,2013-11-01 08:14:00,
2013-11-01 01:15:00,28.4,19.9,30.15,SW,225,0.0,0.0,70,0.00,,SKC,0.00,VWS V14.00,2013-11-01 08:15:00,
2013-11-01 01:16:00,28.4,19.9,30.15,SW,225,0.0,0.0,70,0.00,,SKC,0.00,VWS V14.00,2013-11-01 08:16:00,
2013-11-01 01:18:00,28.4,19.9,30.15,SW,225,0.0,0.0,70,0.00,,SKC,0.00,VWS V14.00,2013-11-01 08:18:00,
2013-11-01 01:19:00,28.4,19.9,30.15,SW,225,0.0,0.0,70,0.00,,SKC,0.00,VWS V14.00,2013-11-01 08:19:00,
2013-11-01 01:20:00,28.3,19.8,30.15,SW,225,0.0,0.0,70,0.00,,SKC,0.00,VWS V14.00,2013-11-01 08:20:00,
2013-11-01 01:21:00,28.3,20.1,30.15,SW,225,0.0,0.0,71,0.00,,SKC,0.00,VWS V14.00,2013-11-01 08:21:00,
2013-11-01 01:23:00,28.3,20.1,30.15,SSE,158,0.0,0.0,71,0.00,,SKC,0.58,VWS V14.00,2013-11-01 08:23:00,
2013-11-01 01:24:00,28.3,20.1,30.15,SSE,158,0.0,0.0,71,0.00,,SKC,0.58,VWS V14.00,2013-11-01 08:24:00,
2013-11-01 01:25:00,28.3,20.1,30.15,SSE,158,0.0,0.0,71,0.00,,SKC,0.58,VWS V14.00,2013-11-01 08:25:00,
2013-11-01 01:27:00,28.4,20.2,30.15,South,180,0.0,0.0,71,0.00,,SKC,0.58,VWS V14.00,2013-11-01 08:27:00,
2013-11-01 01:29:00,28.3,20.1,30.15,South,180,0.0,0.0,71,0.00,,SKC,0.58,VWS V14.00,2013-11-01 08:29:00,
2013-11-01 01:30:00,28.1,20.2,30.15,SSW,202,0.0,0.0,72,0.00,,SKC,0.58,VWS V14.00,2013-11-01 08:30:00,
2013-11-01 01:32:00,27.9,20.1,30.15,WSW,248,0.0,0.0,72,0.00,,SKC,0.58,VWS V14.00,2013-11-01 08:32:00,
2013-11-01 01:34:00,27.7,20.2,30.15,WSW,248,0.0,0.0,73,0.00,,SKC,0.58,VWS V14.00,2013-11-01 08:34:00,
2013-11-01 01:35:00,27.7,20.2,30.15,West,270,0.0,0.0,73,0.00,,SKC,0.58,VWS V14.00,2013-11-01 08:35:00,
2013-11-01 01:36:00,27.7,20.2,30.15,West,270,0.0,0.0,73,0.00,,SKC,0.58,VWS V14.00,2013-11-01 08:36:00,
2013-11-01 01:37:00,27.7,20.2,30.15,West,270,0.0,0.0,73,0.00,,SKC,0.58,VWS V14.00,2013-11-01 08:37:00,
2013-11-01 01:39:00,27.5,20.0,30.15,West,270,0.0,0.0,73,0.00,,SKC,0.58,VWS V14.00,2013-11-01 08:39:00,
2013-11-01 01:40:00,27.5,20.0,30.15,West,270,0.0,0.0,73,0.00,,SKC,0.58,VWS V14.00,2013-11-01 08:40:00,
2013-11-01 01:41:00,27.5,20.0,30.15,West,270,0.0,0.0,73,0.00,,SKC,0.58,VWS V14.00,2013-11-01 08:41:00,
2013-11-01 01:42:00,27.4,19.9,30.15,West,270,0.0,0.0,73,0.00,,SKC,0.58,VWS V14.00,2013-11-01 08:42:00,
2013-11-01 01:45:00,27.4,19.5,30.15,West,270,0.0,0.0,72,0.00,,SKC,0.58,VWS V14.00,2013-11-01 08:45:00,
2013-11-01 01:46:00,27.4,19.5,30.15,West,270,0.0,0.0,72,0.00,,SKC,0.58,VWS V14.00,2013-11-01 08:46:00,
2013-11-01 01:48:00,27.2,19.4,30.15,West,270,0.0,0.0,72,0.00,,SKC,0.58,VWS V14.00,2013-11-01 08:48:00,
2013-11-01 01:50:00,27.0,19.2,30.15,West,270,0.0,0.0,72,0.00,,SKC,0.58,VWS V14.00,2013-11-01 08:50:00,
2013-11-01 01:51:00,27.0,19.2,30.15,West,270,0.0,0.0,72,0.00,,SKC,0.58,VWS V14.00,2013-11-01 08:51:00,
2013-11-01 01:52:00,27.0,19.2,30.15,West,270,0.0,0.0,72,0.00,,SKC,0.58,VWS V14.00,2013-11-01 08:52:00,
2013-11-01 01:53:00,26.8,19.0,30.15,West,270,0.0,0.0,72,0.00,,SKC,0.58,VWS V14.00,2013-11-01 08:53:00,
2013-11-01 01:55:00,27.0,19.2,30.15,West,270,0.0,0.0,72,0.00,,SKC,0.58,VWS V14.00,2013-11-01 08:55:00,
2013-11-01 01:56:00,27.0,19.2,30.15,West,270,0.0,0.0,72,0.00,,SKC,0.58,VWS V14.00,2013-11-01 08:56:00,
2013-11-01 01:57:00,27.0,19.2,30.15,West,270,0.0,0.0,72,0.00,,SKC,0.58,VWS V14.00,2013-11-01 08:57:00,
2013-11-01 01:58:00,27.0,19.2,30.15,West,270,0.0,0.0,72,0.00,,SKC,0.58,VWS V14.00,2013-11-01 08:58:00,
2013-11-01 02:00:00,26.8,19.3,30.15,West,270,0.0,0.0,73,0.00,,SKC,0.58,VWS V14.00,2013-11-01 09:00:00,
2013-11-01 02:01:00,26.8,19.0,30.15,West,270,0.0,0.0,72,0.00,,SKC,0.58,VWS V14.00,2013-11-01 09:01:00,
2013-11-01 02:02:00,26.8,19.0,30.15,West,270,0.0,0.0,72,0.00,,SKC,0.58,VWS V14.00,2013-11-01 09:02:00,
2013-11-01 02:03:00,27.0,19.2,30.15,West,270,0.0,0.0,72,0.00,,SKC,0.58,VWS V14.00,2013-11-01 09:03:00,
2013-11-01 02:05:00,27.0,19.2,30.15,West,270,0.0,0.0,72,0.00,,SKC,0.58,VWS V14.00,2013-11-01 09:05:00,
2013-11-01 02:06:00,27.2,19.4,30.15,West,270,0.0,0.0,72,0.00,,SKC,0.58,VWS V14.00,2013-11-01 09:06:00,
2013-11-01 02:08:00,27.2,19.7,30.15,West,270,0.0,0.0,73,0.00,,SKC,0.58,VWS V14.00,2013-11-01 09:08:00,
2013-11-01 02:09:00,27.4,19.9,30.15,West,270,0.0,0.0,73,0.00,,SKC,0.58,VWS V14.00,2013-11-01 09:09:00,
2013-11-01 02:10:00,27.2,19.7,30.15,West,270,0.0,0.0,73,0.00,,SKC,0.58,VWS V14.00,2013-11-01 09:10:00,
2013-11-01 02:11:00,27.4,19.9,30.15,West,270,0.0,0.0,73,0.00,,SKC,0.58,VWS V14.00,2013-11-01 09:11:00,
2013-11-01 02:12:00,27.4,19.9,30.15,West,270,0.0,0.0,73,0.00,,SKC,0.58,VWS V14.00,2013-11-01 09:12:00,
2013-11-01 02:13:00,27.4,19.9,30.15,West,270,0.0,0.0,73,0.00,,SKC,0.58,VWS V14.00,2013-11-01 09:13:00,
2013-11-01 02:14:00,27.2,19.7,30.15,West,270,0.0,0.0,73,0.00,,SKC,0.58,VWS V14.00,2013-11-01 09:14:00,
2013-11-01 02:15:00,27.2,19.7,30.15,West,270,0.0,0.0,73,0.00,,SKC,0.58,VWS V14.00,2013-11-01 09:15:00,
2013-11-01 02:16:00,26.8,19.3,30.15,West,270,0.0,0.0,73,0.00,,SKC,0.58,VWS V14.00,2013-11-01 09:16:00,
2013-11-01 02:17:00,26.8,19.3,30.15,West,270,0.0,0.0,73,0.00,,SKC,0.58,VWS V14.00,2013-11-01 09:17:00,
2013-11-01 02:18:00,26.8,19.3,30.15,ENE,68,0.0,0.0,73,0.00,,SKC,0.58,VWS V14.00,2013-11-01 09:18:00,
2013-11-01 02:20:00,26.6,18.8,30.15,ENE,68,0.0,0.0,72,0.00,,SKC,0.58,VWS V14.00,2013-11-01 09:20:00,
2013-11-01 02:22:00,26.5,18.7,30.15,ENE,68,0.0,0.0,72,0.00,,SKC,0.58,VWS V14.00,2013-11-01 09:22:00,
2013-11-01 02:23:00,26.3,18.5,30.15,ENE,68,0.0,0.0,72,0.00,,SKC,0.58,VWS V14.00,2013-11-01 09:23:00,
2013-11-01 02:25:00,26.3,18.5,30.15,ENE,68,0.0,0.0,72,0.00,,SKC,0.58,VWS V14.00,2013-11-01 09:25:00,
2013-11-01 02:26:00,26.3,18.5,30.15,ENE,68,0.0,0.0,72,0.00,,SKC,0.58,VWS V14.00,2013-11-01 09:26:00,
2013-11-01 02:27:00,26.3,18.5,30.15,ENE,68,0.0,0.0,72,0.00,,SKC,0.58,VWS V14.00,2013-11-01 09:27:00,
2013-11-01 02:28:00,26.3,18.8,30.15,ENE,68,0.0,0.0,73,0.00,,SKC,0.58,VWS V14.00,2013-11-01 09:28:00,
2013-11-01 02:29:00,26.1,18.6,30.15,ENE,68,0.0,0.0,73,0.00,,SKC,0.58,VWS V14.00,2013-11-01 09:29:00,
2013-11-01 02:30:00,26.3,18.8,30.15,NNE,22,0.0,0.0,73,0.00,,SKC,0.58,VWS V14.00,2013-11-01 09:30:00,
2013-11-01 02:31:00,26.1,19.0,30.15,NNE,22,0.0,0.0,74,0.00,,SKC,0.58,VWS V14.00,2013-11-01 09:31:00,
2013-11-01 02:32:00,25.9,18.8,30.15,NNE,22,0.0,0.0,74,0.00,,SKC,0.58,VWS V14.00,2013-11-01 09:32:00,
2013-11-01 02:33:00,25.7,18.6,30.15,NNE,22,0.0,0.0,74,0.00,,SKC,0.58,VWS V14.00,2013-11-01 09:33:00,
2013-11-01 02:34:00,25.7,18.6,30.15,NE,45,0.0,0.0,74,0.00,,SKC,0.58,VWS V14.00,2013-11-01 09:34:00,
2013-11-01 02:35:00,25.7,18.6,30.15,NE,45,0.0,0.0,74,0.00,,SKC,0.58,VWS V14.00,2013-11-01 09:35:00,
2013-11-01 02:36:00,25.7,18.6,30.15,NE,45,0.0,0.0,74,0.00,,SKC,0.58,VWS V14.00,2013-11-01 09:36:00,
2013-11-01 02:37:00,25.7,18.3,30.15,NE,45,0.0,0.0,73,0.00,,SKC,0.58,VWS V14.00,2013-11-01 09:37:00,
2013-11-01 02:38:00,25.6,18.1,30.15,NE,45,0.0,0.0,73,0.00,,SKC,0.58,VWS V14.00,2013-11-01 09:38:00,
2013-11-01 02:39:00,25.4,18.0,30.15,NE,45,0.0,0.0,73,0.00,,SKC,0.58,VWS V14.00,2013-11-01 09:39:00,
2013-11-01 02:40:00,25.4,18.0,30.15,NE,45,0.0,0.0,73,0.00,,SKC,0.58,VWS V14.00,2013-11-01 09:40:00,
2013-11-01 02:42:00,25.4,18.0,30.15,NE,45,0.0,0.0,73,0.00,,SKC,0.58,VWS V14.00,2013-11-01 09:42:00,
2013-11-01 02:43:00,25.2,17.8,30.15,NE,45,0.0,0.0,73,0.00,,SKC,0.58,VWS V14.00,2013-11-01 09:43:00,
2013-11-01 02:44:00,25.2,17.8,30.15,NE,45,0.0,0.0,73,0.00,,SKC,0.58,VWS V14.00,2013-11-01 09:44:00,
2013-11-01 02:46:00,25.2,17.8,30.15,NE,45,0.0,0.0,73,0.00,,SKC,0.58,VWS V14.00,2013-11-01 09:46:00,
2013-11-01 02:47:00,25.2,17.8,30.15,NE,45,0.0,0.0,73,0.00,,SKC,0.58,VWS V14.00,2013-11-01 09:47:00,
2013-11-01 02:48:00,25.4,18.0,30.15,NE,45,0.0,0.0,73,0.00,,SKC,0.58,VWS V14.00,2013-11-01 09:48:00,
2013-11-01 02:50:00,25.2,18.1,30.15,SSE,158,0.0,0.0,74,0.00,,SKC,0.58,VWS V14.00,2013-11-01 09:50:00,
2013-11-01 02:51:00,25.2,17.8,30.15,SSE,158,0.0,0.0,73,0.00,,SKC,0.58,VWS V14.00,2013-11-01 09:51:00,
2013-11-01 02:52:00,25.2,17.8,30.15,SSE,158,2.5,2.5,73,0.00,,SKC,0.58,VWS V14.00,2013-11-01 09:52:00,
2013-11-01 02:53:00,25.2,17.8,30.15,SSE,158,1.3,1.3,73,0.00,,SKC,0.58,VWS V14.00,2013-11-01 09:53:00,
2013-11-01 02:55:00,25.2,17.8,30.15,SSE,158,0.0,0.0,73,0.00,,SKC,0.58,VWS V14.00,2013-11-01 09:55:00,
2013-11-01 02:56:00,25.2,17.8,30.15,SSE,158,0.0,0.0,73,0.00,,SKC,0.58,VWS V14.00,2013-11-01 09:56:00,
2013-11-01 02:57:00,25.0,17.6,30.15,SSE,158,0.0,0.0,73,0.00,,SKC,0.58,VWS V14.00,2013-11-01 09:57:00,
2013-11-01 02:58:00,25.0,17.6,30.15,SSE,158,0.0,0.0,73,0.00,,SKC,0.58,VWS V14.00,2013-11-01 09:58:00,
2013-11-01 03:00:00,24.8,17.4,30.15,SSE,158,0.0,0.0,73,0.00,,SKC,0.58,VWS V14.00,2013-11-01 10:00:00,
2013-11-01 03:01:00,24.8,17.4,30.15,SSE,158,0.0,0.0,73,0.00,,SKC,0.58,VWS V14.00,2013-11-01 10:01:00,
2013-11-01 03:02:00,24.8,17.7,30.15,SSE,158,0.0,0.0,74,0.00,,SKC,0.58,VWS V14.00,2013-11-01 10:02:00,
2013-11-01 03:03:00,24.7,17.6,30.15,SSE,158,0.0,0.0,74,0.00,,SKC,0.58,VWS V14.00,2013-11-01 10:03:00,
2013-11-01 03:05:00,24.8,18.0,30.15,SSE,158,0.0,0.0,75,0.00,,SKC,0.58,VWS V14.00,2013-11-01 10:05:00,
2013-11-01 03:06:00,24.8,18.0,30.15,SSE,158,0.0,0.0,75,0.00,,SKC,0.58,VWS V14.00,2013-11-01 10:06:00,
2013-11-01 03:07:00,24.8,18.0,30.15,SSE,158,0.0,0.0,75,0.00,,SKC,0.58,VWS V14.00,2013-11-01 10:07:00,
2013-11-01 03:08:00,24.8,18.0,30.15,SSE,158,0.0,0.0,75,0.00,,SKC,0.58,VWS V14.00,2013-11-01 10:08:00,
2013-11-01 03:10:00,25.2,18.4,30.15,SSE,158,0.0,0.0,75,0.00,,SKC,0.58,VWS V14.00,2013-11-01 10:10:00,
2013-11-01 03:11:00,25.2,18.4,30.15,West,270,0.0,0.0,75,0.00,,SKC,0.58,VWS V14.00,2013-11-01 10:11:00,
2013-11-01 03:12:00,25.4,18.6,30.15,West,270,0.0,0.0,75,0.00,,SKC,0.58,VWS V14.00,2013-11-01 10:12:00,
2013-11-01 03:13:00,25.4,18.6,30.15,West,270,0.0,0.0,75,0.00,,SKC,0.58,VWS V14.00,2013-11-01 10:13:00,
2013-11-01 03:15:00,25.6,18.8,30.15,West,270,0.0,0.0,75,0.00,,SKC,0.58,VWS V14.00,2013-11-01 10:15:00,
2013-11-01 03:17:00,25.7,18.9,30.15,WSW,248,0.0,0.0,75,0.00,,SKC,0.58,VWS V14.00,2013-11-01 10:17:00,
2013-11-01 03:18:00,25.9,19.1,30.15,SW,225,1.3,1.3,75,0.00,,SKC,0.58,VWS V14.00,2013-11-01 10:18:00,
2013-11-01 03:20:00,26.3,19.5,30.15,SW,225,0.0,0.0,75,0.00,,SKC,0.58,VWS V14.00,2013-11-01 10:20:00,
2013-11-01 03:22:00,26.5,19.9,30.15,SW,225,0.0,0.0,76,0.00,,SKC,0.58,VWS V14.00,2013-11-01 10:22:00,
2013-11-01 03:23:00,26.6,20.1,30.15,SW,225,2.9,2.9,76,0.00,,SKC,0.58,VWS V14.00,2013-11-01 10:23:00,
2013-11-01 03:24:00,27.0,21.1,30.15,SW,225,0.0,0.0,78,0.00,,SKC,0.58,VWS V14.00,2013-11-01 10:24:00,
2013-11-01 03:26:00,27.0,21.4,30.15,SW,225,0.0,0.0,79,0.00,,SKC,0.58,VWS V14.00,2013-11-01 10:26:00,
2013-11-01 03:27:00,27.2,21.5,30.15,SW,225,1.3,1.3,79,0.00,,SKC,0.58,VWS V14.00,2013-11-01 10:27:00,
2013-11-01 03:28:00,27.2,21.5,30.15,SW,225,0.0,0.0,79,0.00,,SKC,0.58,VWS V14.00,2013-11-01 10:28:00,
2013-11-01 03:29:00,27.2,21.8,30.15,SW,225,0.0,0.0,80,0.00,,SKC,0.58,VWS V14.00,2013-11-01 10:29:00,
2013-11-01 03:31:00,27.2,21.8,30.15,SSW,202,2.5,2.5,80,0.00,,SKC,0.58,VWS V14.00,2013-11-01 10:31:00,
2013-11-01 03:32:00,27.2,21.8,30.15,South,180,0.0,0.0,80,0.00,,SKC,0.58,VWS V14.00,2013-11-01 10:32:00,
2013-11-01 03:33:00,27.2,21.8,30.15,South,180,0.0,0.0,80,0.00,,SKC,0.58,VWS V14.00,2013-11-01 10:33:00,
2013-11-01 03:35:00,27.2,22.1,30.15,South,180,0.0,0.0,81,0.00,,SKC,0.58,VWS V14.00,2013-11-01 10:35:00,
2013-11-01 03:36:00,26.8,21.5,30.15,NW,315,0.0,0.0,80,0.00,,SKC,0.58,VWS V14.00,2013-11-01 10:36:00,
2013-11-01 03:37:00,26.6,21.3,30.15,NW,315,0.0,0.0,80,0.00,,SKC,0.58,VWS V14.00,2013-11-01 10:37:00,
2013-11-01 03:38:00,26.6,21.0,30.15,NW,315,0.0,0.0,79,0.00,,SKC,0.58,VWS V14.00,2013-11-01 10:38:00,
2013-11-01 03:39:00,26.5,20.8,30.15,NW,315,0.0,0.0,79,0.00,,SKC,0.58,VWS V14.00,2013-11-01 10:39:00,
2013-11-01 03:40:00,26.5,20.8,30.15,NW,315,0.0,0.0,79,0.00,,SKC,0.58,VWS V14.00,2013-11-01 10:40:00,
2013-11-01 03:41:00,26.3,20.4,30.15,NW,315,0.0,0.0,78,0.00,,SKC,0.58,VWS V14.00,2013-11-01 10:41:00,
2013-11-01 03:42:00,26.3,20.4,30.15,West,270,0.0,0.0,78,0.00,,SKC,0.58,VWS V14.00,2013-11-01 10:42:00,
2013-11-01 03:43:00,26.3,20.4,30.15,West,270,0.0,0.0,78,0.00,,SKC,0.58,VWS V14.00,2013-11-01 10:43:00,
2013-11-01 03:44:00,26.3,20.4,30.15,West,270,0.0,0.0,78,0.00,,SKC,0.58,VWS V14.00,2013-11-01 10:44:00,
2013-11-01 03:45:00,26.5,20.5,30.15,SW,225,0.0,0.0,78,0.00,,SKC,0.58,VWS V14.00,2013-11-01 10:45:00,
2013-11-01 03:47:00,26.5,20.8,30.15,SW,225,0.0,0.0,79,0.00,,SKC,0.58,VWS V14.00,2013-11-01 10:47:00,
2013-11-01 03:48:00,26.5,20.8,30.15,SW,225,0.0,0.0,79,0.00,,SKC,0.58,VWS V14.00,2013-11-01 10:48:00,
2013-11-01 03:49:00,26.3,20.7,30.15,SW,225,0.0,0.0,79,0.00,,SKC,0.58,VWS V14.00,2013-11-01 10:49:00,
2013-11-01 03:51:00,26.3,20.7,30.15,SW,225,0.0,0.0,79,0.00,,SKC,0.58,VWS V14.00,2013-11-01 10:51:00,
2013-11-01 03:52:00,26.3,20.4,30.15,SW,225,0.0,0.0,78,0.00,,SKC,0.58,VWS V14.00,2013-11-01 10:52:00,
2013-11-01 03:53:00,26.3,20.4,30.15,SW,225,0.0,0.0,78,0.00,,SKC,0.58,VWS V14.00,2013-11-01 10:53:00,
2013-11-01 03:56:00,26.1,20.2,30.15,SW,225,0.0,0.0,78,0.00,,SKC,0.58,VWS V14.00,2013-11-01 10:56:00,
2013-11-01 03:57:00,25.9,20.0,30.15,SW,225,0.0,0.0,78,0.00,,SKC,0.58,VWS V14.00,2013-11-01 10:57:00,
2013-11-01 03:58:00,25.9,20.0,30.15,SW,225,0.0,0.0,78,0.00,,SKC,0.58,VWS V14.00,2013-11-01 10:58:00,
2013-11-01 04:01:00,25.7,19.8,30.15,SW,225,0.0,0.0,78,0.00,,SKC,0.58,VWS V14.00,2013-11-01 11:01:00,
2013-11-01 04:03:00,25.4,19.5,30.15,SW,225,0.0,0.0,78,0.00,,SKC,0.58,VWS V14.00,2013-11-01 11:03:00,
2013-11-01 04:06:00,25.0,19.1,30.15,NNW,338,0.0,0.0,78,0.00,,SKC,0.58,VWS V14.00,2013-11-01 11:06:00,
2013-11-01 04:08:00,24.8,18.7,30.15,NNW,338,0.0,0.0,77,0.00,,SKC,0.58,VWS V14.00,2013-11-01 11:08:00,
2013-11-01 04:09:00,24.7,18.5,30.15,NNW,338,0.0,0.0,77,0.00,,SKC,0.58,VWS V14.00,2013-11-01 11:09:00,
2013-11-01 04:11:00,24.7,18.5,30.15,NNW,338,0.0,0.0,77,0.00,,SKC,0.58,VWS V14.00,2013-11-01 11:11:00,
2013-11-01 04:13:00,24.5,18.3,30.15,NNW,338,0.0,0.0,77,0.00,,SKC,0.58,VWS V14.00,2013-11-01 11:13:00,
2013-11-01 04:14:00,24.5,18.3,30.15,NNW,338,0.0,0.0,77,0.00,,SKC,0.58,VWS V14.00,2013-11-01 11:14:00,
2013-11-01 04:16:00,24.5,18.3,30.15,NNW,338,0.0,0.0,77,0.00,,SKC,0.58,VWS V14.00,2013-11-01 11:16:00,
2013-11-01 04:17:00,24.5,18.3,30.15,NNW,338,0.0,0.0,77,0.00,,SKC,0.58,VWS V14.00,2013-11-01 11:17:00,
2013-11-01 04:18:00,24.5,18.3,30.15,NNW,338,0.0,0.0,77,0.00,,SKC,0.58,VWS V14.00,2013-11-01 11:18:00,
2013-11-01 04:19:00,24.5,18.3,30.15,NNW,338,0.0,0.0,77,0.00,,SKC,0.58,VWS V14.00,2013-11-01 11:19:00,
2013-11-01 04:21:00,24.5,18.3,30.15,NNW,338,0.0,0.0,77,0.00,,SKC,0.58,VWS V14.00,2013-11-01 11:21:00,
2013-11-01 04:22:00,24.5,18.3,30.15,NNW,338,0.0,0.0,77,0.00,,SKC,0.58,VWS V14.00,2013-11-01 11:22:00,
2013-11-01 04:23:00,24.5,18.3,30.15,NNW,338,0.0,0.0,77,0.00,,SKC,0.58,VWS V14.00,2013-11-01 11:23:00,
2013-11-01 04:24:00,24.5,18.3,30.15,NNW,338,0.0,0.0,77,0.00,,SKC,0.58,VWS V14.00,2013-11-01 11:24:00,
2013-11-01 04:27:00,24.5,18.3,30.15,NNW,338,0.0,0.0,77,0.00,,SKC,0.58,VWS V14.00,2013-11-01 11:27:00,
2013-11-01 04:28:00,24.5,18.3,30.15,NW,315,2.2,2.2,77,0.00,,SKC,0.58,VWS V14.00,2013-11-01 11:28:00,
2013-11-01 04:29:00,24.5,18.3,30.15,NW,315,0.0,0.0,77,0.00,,SKC,0.58,VWS V14.00,2013-11-01 11:29:00,
2013-11-01 04:33:00,24.5,18.3,30.15,NW,315,0.0,0.0,77,0.00,,SKC,0.58,VWS V14.00,2013-11-01 11:33:00,
2013-11-01 04:34:00,24.5,18.3,30.15,NW,315,0.0,0.0,77,0.00,,SKC,0.58,VWS V14.00,2013-11-01 11:34:00,
2013-11-01 04:35:00,24.5,18.3,30.15,WNW,292,0.0,0.0,77,0.00,,SKC,0.58,VWS V14.00,2013-11-01 11:35:00,
2013-11-01 04:38:00,24.5,18.3,30.15,WNW,292,0.0,0.0,77,0.00,,SKC,0.58,VWS V14.00,2013-11-01 11:38:00,
2013-11-01 04:39:00,24.5,18.3,30.15,WNW,292,0.0,0.0,77,0.00,,SKC,0.58,VWS V14.00,2013-11-01 11:39:00,
2013-11-01 04:40:00,24.5,18.3,30.15,WNW,292,0.0,0.0,77,0.00,,SKC,0.58,VWS V14.00,2013-11-01 11:40:00,
2013-11-01 04:43:00,24.3,18.1,30.15,WNW,292,0.0,0.0,77,0.00,,SKC,0.58,VWS V14.00,2013-11-01 11:43:00,
2013-11-01 04:44:00,24.3,18.1,30.15,WNW,292,0.0,0.0,77,0.00,,SKC,0.58,VWS V14.00,2013-11-01 11:44:00,
2013-11-01 04:46:00,24.3,18.1,30.15,WNW,292,0.0,0.0,77,0.00,,SKC,0.58,VWS V14.00,2013-11-01 11:46:00,
2013-11-01 04:48:00,24.3,18.1,30.15,WNW,292,0.0,0.0,77,0.00,,SKC,0.58,VWS V14.00,2013-11-01 11:48:00,
2013-11-01 04:49:00,24.1,18.0,30.15,WNW,292,0.0,0.0,77,0.00,,SKC,0.58,VWS V14.00,2013-11-01 11:49:00,
2013-11-01 04:51:00,24.1,18.0,30.15,WNW,292,0.0,0.0,77,0.00,,SKC,0.58,VWS V14.00,2013-11-01 11:51:00,
2013-11-01 04:53:00,23.9,17.8,30.15,WNW,292,0.0,0.0,77,0.00,,SKC,0.58,VWS V14.00,2013-11-01 11:53:00,
2013-11-01 04:54:00,23.8,17.6,30.15,WNW,292,0.0,0.0,77,0.00,,SKC,0.58,VWS V14.00,2013-11-01 11:54:00,
2013-11-01 04:56:00,23.6,17.4,30.15,WNW,292,0.0,0.0,77,0.00,,SKC,0.58,VWS V14.00,2013-11-01 11:56:00,
2013-11-01 04:58:00,23.6,17.4,30.15,WNW,292,0.0,0.0,77,0.00,,SKC,0.58,VWS V14.00,2013-11-01 11:58:00,
2013-11-01 04:59:00,23.6,17.4,30.15,WNW,292,0.0,0.0,77,0.00,,SKC,0.58,VWS V14.00,2013-11-01 11:59:00,
2013-11-01 05:02:00,23.4,17.3,30.15,WNW,292,0.0,0.0,77,0.00,,SKC,0.58,VWS V14.00,2013-11-01 12:02:00,
2013-11-01 05:03:00,23.4,17.3,30.15,WNW,292,0.0,0.0,77,0.00,,SKC,0.58,VWS V14.00,2013-11-01 12:03:00,
2013-11-01 05:04:00,23.4,17.3,30.15,WNW,292,0.0,0.0,77,0.00,,SKC,0.58,VWS V14.00,2013-11-01 12:04:00,
2013-11-01 05:05:00,23.4,17.3,30.15,WNW,292,0.0,0.0,77,0.00,,SKC,0.58,VWS V14.00,2013-11-01 12:05:00,
2013-11-01 05:08:00,23.2,17.4,30.15,WNW,292,0.0,0.0,78,0.00,,SKC,0.58,VWS V14.00,2013-11-01 12:08:00,
2013-11-01 05:09:00,23.2,17.4,30.15,WNW,292,0.0,0.0,78,0.00,,SKC,0.58,VWS V14.00,2013-11-01 12:09:00,
2013-11-01 05:10:00,23.2,17.4,30.15,WNW,292,0.0,0.0,78,0.00,,SKC,0.58,VWS V14.00,2013-11-01 12:10:00,
2013-11-01 05:13:00,23.0,17.2,30.15,WNW,292,0.0,0.0,78,0.00,,SKC,0.58,VWS V14.00,2013-11-01 12:13:00,
2013-11-01 05:14:00,23.0,17.2,30.18,WNW,292,0.0,0.0,78,0.00,,SKC,0.58,VWS V14.00,2013-11-01 12:14:00,
2013-11-01 05:15:00,23.0,17.2,30.18,WNW,292,0.0,0.0,78,0.00,,SKC,0.58,VWS V14.00,2013-11-01 12:15:00,
2013-11-01 05:18:00,23.0,17.2,30.18,WNW,292,0.0,0.0,78,0.00,,SKC,0.58,VWS V14.00,2013-11-01 12:18:00,
2013-11-01 05:19:00,22.9,17.0,30.18,WNW,292,0.0,0.0,78,0.00,,SKC,0.58,VWS V14.00,2013-11-01 12:19:00,
2013-11-01 05:20:00,22.9,17.0,30.18,WNW,292,0.0,0.0,78,0.00,,SKC,0.58,VWS V14.00,2013-11-01 12:20:00,
2013-11-01 05:23:00,23.0,16.9,30.18,WNW,292,0.0,0.0,77,0.00,,SKC,0.58,VWS V14.00,2013-11-01 12:23:00,
2013-11-01 05:24:00,23.0,16.9,30.18,WNW,292,0.0,0.0,77,0.00,,SKC,0.58,VWS V14.00,2013-11-01 12:24:00,
2013-11-01 05:25:00,23.0,16.9,30.18,WNW,292,0.0,0.0,77,0.00,,SKC,0.58,VWS V14.00,2013-11-01 12:25:00,
2013-11-01 05:29:00,22.7,16.6,30.18,WNW,292,0.0,0.0,77,0.00,,SKC,0.58,VWS V14.00,2013-11-01 12:29:00,
2013-11-01 05:30:00,22.7,16.6,30.18,WNW,292,0.0,0.0,77,0.00,,SKC,0.58,VWS V14.00,2013-11-01 12:30:00,
2013-11-01 05:31:00,22.5,16.4,30.18,WNW,292,0.0,0.0,77,0.00,,SKC,0.58,VWS V14.00,2013-11-01 12:31:00,
2013-11-01 05:34:00,22.5,16.4,30.18,WNW,292,0.0,0.0,77,0.00,,SKC,0.58,VWS V14.00,2013-11-01 12:34:00,
2013-11-01 05:35:00,22.3,16.2,30.18,WNW,292,0.0,0.0,77,0.00,,SKC,0.58,VWS V14.00,2013-11-01 12:35:00,
2013-11-01 05:36:00,22.1,16.0,30.18,WNW,292,0.0,0.0,77,0.00,,SKC,0.58,VWS V14.00,2013-11-01 12:36:00,
2013-11-01 05:39:00,22.1,16.0,30.18,WNW,292,0.0,0.0,77,0.00,,SKC,0.58,VWS V14.00,2013-11-01 12:39:00,
2013-11-01 05:40:00,22.1,16.0,30.18,WNW,292,0.0,0.0,77,0.00,,SKC,0.58,VWS V14.00,2013-11-01 12:40:00,
2013-11-01 05:41:00,22.3,16.2,30.18,WNW,292,0.0,0.0,77,0.00,,SKC,0.58,VWS V14.00,2013-11-01 12:41:00,
2013-11-01 05:44:00,22.3,16.5,30.18,WNW,292,0.0,0.0,78,0.00,,SKC,0.58,VWS V14.00,2013-11-01 12:44:00,
2013-11-01 05:45:00,22.3,16.5,30.18,WNW,292,0.0,0.0,78,0.00,,SKC,0.58,VWS V14.00,2013-11-01 12:45:00,
2013-11-01 05:46:00,22.3,16.5,30.18,WNW,292,0.0,0.0,78,0.00,,SKC,0.58,VWS V14.00,2013-11-01 12:46:00,
2013-11-01 05:50:00,22.1,16.0,30.18,WNW,292,0.0,0.0,77,0.00,,SKC,0.58,VWS V14.00,2013-11-01 12:50:00,
2013-11-01 05:52:00,22.0,15.9,30.18,WNW,292,0.0,0.0,77,0.00,,SKC,0.58,VWS V14.00,2013-11-01 12:52:00,
2013-11-01 05:55:00,22.0,15.9,30.18,WNW,292,0.0,0.0,77,0.00,,SKC,0.58,VWS V14.00,2013-11-01 12:55:00,
2013-11-01 05:56:00,22.0,15.9,30.18,WNW,292,0.0,0.0,77,0.00,,SKC,0.58,VWS V14.00,2013-11-01 12:56:00,
2013-11-01 05:57:00,22.0,15.9,30.18,WNW,292,0.0,0.0,77,0.00,,SKC,0.58,VWS V14.00,2013-11-01 12:57:00,
2013-11-01 06:00:00,22.1,16.3,30.18,WNW,292,0.0,0.0,78,0.00,,SKC,0.58,VWS V14.00,2013-11-01 13:00:00,
2013-11-01 06:01:00,22.1,16.3,30.18,WNW,292,0.0,0.0,78,0.00,,SKC,0.58,VWS V14.00,2013-11-01 13:01:00,
2013-11-01 06:02:00,22.1,16.3,30.18,WNW,292,0.0,0.0,78,0.00,,SKC,0.58,VWS V14.00,2013-11-01 13:02:00,
2013-11-01 06:05:00,22.1,16.3,30.18,WNW,292,0.0,0.0,78,0.00,,SKC,0.58,VWS V14.00,2013-11-01 13:05:00,
2013-11-01 06:06:00,22.1,16.3,30.18,WNW,292,0.0,0.0,78,0.00,,SKC,0.58,VWS V14.00,2013-11-01 13:06:00,
2013-11-01 06:07:00,22.1,16.3,30.18,WNW,292,0.0,0.0,78,0.00,,SKC,0.58,VWS V14.00,2013-11-01 13:07:00,
2013-11-01 06:11:00,22.3,16.5,30.18,WNW,292,0.0,0.0,78,0.00,,SKC,0.58,VWS V14.00,2013-11-01 13:11:00,
2013-11-01 06:12:00,22.3,16.5,30.18,WNW,292,0.0,0.0,78,0.00,,SKC,0.58,VWS V14.00,2013-11-01 13:12:00,
2013-11-01 06:16:00,22.1,16.3,30.18,WNW,292,0.0,0.0,78,0.00,,SKC,0.58,VWS V14.00,2013-11-01 13:16:00,
2013-11-01 06:17:00,22.0,15.9,30.18,WNW,292,0.0,0.0,77,0.00,,SKC,0.58,VWS V14.00,2013-11-01 13:17:00,
2013-11-01 06:18:00,22.0,15.9,30.18,WNW,292,0.0,0.0,77,0.00,,SKC,0.58,VWS V14.00,2013-11-01 13:18:00,
2013-11-01 06:21:00,22.0,15.9,30.18,WNW,292,0.0,0.0,77,0.00,,SKC,0.58,VWS V14.00,2013-11-01 13:21:00,
2013-11-01 06:22:00,22.0,15.9,30.18,WNW,292,0.0,0.0,77,0.00,,SKC,0.58,VWS V14.00,2013-11-01 13:22:00,
2013-11-01 06:23:00,22.0,16.2,30.18,WNW,292,0.0,0.0,78,0.00,,SKC,0.58,VWS V14.00,2013-11-01 13:23:00,
2013-11-01 06:26:00,22.0,15.9,30.18,WNW,292,0.0,0.0,77,0.00,,SKC,0.58,VWS V14.00,2013-11-01 13:26:00,
2013-11-01 06:27:00,21.8,15.7,30.18,WNW,292,0.0,0.0,77,0.00,,SKC,0.58,VWS V14.00,2013-11-01 13:27:00,
2013-11-01 06:28:00,21.8,15.7,30.18,WNW,292,0.0,0.0,77,0.00,,SKC,0.58,VWS V14.00,2013-11-01 13:28:00,
2013-11-01 06:31:00,22.0,15.9,30.18,WNW,292,0.0,0.0,77,0.00,,SKC,0.58,VWS V14.00,2013-11-01 13:31:00,
2013-11-01 06:32:00,22.0,15.9,30.18,WNW,292,0.0,0.0,77,0.00,,SKC,0.58,VWS V14.00,2013-11-01 13:32:00,
2013-11-01 06:33:00,22.0,15.9,30.18,WNW,292,0.0,0.0,77,0.00,,SKC,0.58,VWS V14.00,2013-11-01 13:33:00,
2013-11-01 06:34:00,22.0,15.9,30.18,WNW,292,0.0,0.0,77,0.00,,SKC,0.58,VWS V14.00,2013-11-01 13:34:00,
2013-11-01 06:36:00,22.0,15.9,30.18,South,180,0.0,0.0,77,0.00,,SKC,0.58,VWS V14.00,2013-11-01 13:36:00,
2013-11-01 06:37:00,22.0,15.9,30.18,South,180,0.0,0.0,77,0.00,,SKC,0.58,VWS V14.00,2013-11-01 13:37:00,
2013-11-01 06:38:00,22.0,16.2,30.18,South,180,0.0,0.0,78,0.00,,SKC,0.58,VWS V14.00,2013-11-01 13:38:00,
2013-11-01 06:39:00,22.0,16.2,30.18,South,180,0.0,0.0,78,0.00,,SKC,0.58,VWS V14.00,2013-11-01 13:39:00,
2013-11-01 06:42:00,21.6,15.8,30.18,South,180,0.9,0.9,78,0.00,,SKC,0.58,VWS V14.00,2013-11-01 13:42:00,
2013-11-01 06:43:00,21.6,15.8,30.18,South,180,1.6,1.6,78,0.00,,SKC,0.58,VWS V14.00,2013-11-01 13:43:00,
2013-11-01 06:44:00,21.6,15.8,30.18,South,180,1.1,1.1,78,0.00,,SKC,0.58,VWS V14.00,2013-11-01 13:44:00,
2013-11-01 06:47:00,21.6,15.8,30.18,South,180,0.0,0.0,78,0.00,,SKC,0.58,VWS V14.00,2013-11-01 13:47:00,
2013-11-01 06:48:00,21.8,16.0,30.18,South,180,0.0,0.0,78,0.00,,SKC,0.58,VWS V14.00,2013-11-01 13:48:00,
2013-11-01 06:49:00,21.8,16.0,30.18,South,180,0.0,0.0,78,0.00,,SKC,0.58,VWS V14.00,2013-11-01 13:49:00,
2013-11-01 06:52:00,22.0,16.5,30.18,South,180,0.0,0.0,79,0.00,,SKC,0.58,VWS V14.00,2013-11-01 13:52:00,
2013-11-01 06:53:00,22.0,16.5,30.18,South,180,0.0,0.0,79,0.00,,SKC,0.58,VWS V14.00,2013-11-01 13:53:00,
2013-11-01 06:54:00,22.0,16.5,30.18,South,180,0.0,0.0,79,0.00,,SKC,0.58,VWS V14.00,2013-11-01 13:54:00,
2013-11-01 06:55:00,22.0,16.5,30.18,South,180,0.0,0.0,79,0.00,,SKC,0.58,VWS V14.00,2013-11-01 13:55:00,
2013-11-01 06:57:00,22.0,16.5,30.18,South,180,0.0,0.0,79,0.00,,SKC,0.58,VWS V14.00,2013-11-01 13:57:00,
2013-11-01 06:58:00,21.8,16.3,30.18,South,180,0.0,0.0,79,0.00,,SKC,0.58,VWS V14.00,2013-11-01 13:58:00,
2013-11-01 06:59:00,21.8,16.0,30.18,South,180,0.0,0.0,78,0.00,,SKC,0.58,VWS V14.00,2013-11-01 13:59:00,
2013-11-01 07:00:00,21.8,16.0,30.18,South,180,1.1,1.1,78,0.00,,SKC,0.58,VWS V14.00,2013-11-01 14:00:00,
2013-11-01 07:02:00,22.0,16.2,30.18,South,180,0.0,0.0,78,0.00,,SKC,0.58,VWS V14.00,2013-11-01 14:02:00,
2013-11-01 07:03:00,21.8,16.0,30.18,South,180,0.0,0.0,78,0.00,,SKC,0.58,VWS V14.00,2013-11-01 14:03:00,
2013-11-01 07:04:00,21.8,16.0,30.18,South,180,0.0,0.0,78,0.00,,SKC,0.58,VWS V14.00,2013-11-01 14:04:00,
2013-11-01 07:05:00,21.8,16.0,30.18,South,180,0.0,0.0,78,0.00,,SKC,0.58,VWS V14.00,2013-11-01 14:05:00,
2013-11-01 07:07:00,21.6,15.8,30.18,South,180,0.0,0.0,78,0.00,,SKC,0.58,VWS V14.00,2013-11-01 14:07:00,
2013-11-01 07:08:00,21.6,15.8,30.18,South,180,0.0,0.0,78,0.00,,SKC,0.58,VWS V14.00,2013-11-01 14:08:00,
2013-11-01 07:09:00,21.6,15.8,30.18,South,180,0.0,0.0,78,0.00,,SKC,0.58,VWS V14.00,2013-11-01 14:09:00,
2013-11-01 07:10:00,21.6,15.8,30.18,South,180,0.0,0.0,78,0.00,,SKC,0.58,VWS V14.00,2013-11-01 14:10:00,
2013-11-01 07:12:00,21.6,15.8,30.18,South,180,0.0,0.0,78,0.00,,SKC,0.58,VWS V14.00,2013-11-01 14:12:00,
2013-11-01 07:13:00,21.6,16.1,30.18,SW,225,0.0,0.0,79,0.00,,SKC,0.58,VWS V14.00,2013-11-01 14:13:00,
2013-11-01 07:14:00,21.8,16.0,30.18,SW,225,0.0,0.0,78,0.00,,SKC,0.58,VWS V14.00,2013-11-01 14:14:00,
2013-11-01 07:15:00,21.8,16.0,30.18,SW,225,0.0,0.0,78,0.00,,SKC,0.58,VWS V14.00,2013-11-01 14:15:00,
2013-11-01 07:17:00,21.8,16.0,30.18,SW,225,0.0,0.0,78,0.00,,SKC,0.58,VWS V14.00,2013-11-01 14:17:00,
2013-11-01 07:18:00,21.8,16.0,30.18,SW,225,0.0,0.0,78,0.00,,SKC,0.58,VWS V14.00,2013-11-01 14:18:00,
2013-11-01 07:20:00,21.6,16.1,30.18,SW,225,0.0,0.0,79,0.00,,SKC,0.58,VWS V14.00,2013-11-01 14:20:00,
2013-11-01 07:22:00,21.6,16.1,30.18,SW,225,0.0,0.0,79,0.00,,SKC,0.58,VWS V14.00,2013-11-01 14:22:00,
2013-11-01 07:23:00,21.6,16.1,30.18,SW,225,0.0,0.0,79,0.00,,SKC,0.58,VWS V14.00,2013-11-01 14:23:00,
2013-11-01 07:25:00,21.6,16.1,30.18,SW,225,0.0,0.0,79,0.00,,SKC,0.58,VWS V14.00,2013-11-01 14:25:00,
2013-11-01 07:26:00,21.6,16.1,30.18,SW,225,0.0,0.0,79,0.00,,SKC,0.58,VWS V14.00,2013-11-01 14:26:00,
2013-11-01 07:27:00,21.6,16.1,30.18,SW,225,0.0,0.0,79,0.00,,SKC,0.58,VWS V14.00,2013-11-01 14:27:00,
2013-11-01 07:28:00,21.6,16.1,30.18,SW,225,0.0,0.0,79,0.00,,SKC,0.58,VWS V14.00,2013-11-01 14:28:00,
2013-11-01 07:30:00,21.6,16.1,30.18,SW,225,0.0,0.0,79,0.00,,SKC,0.58,VWS V14.00,2013-11-01 14:30:00,
2013-11-01 07:31:00,21.8,16.3,30.18,SW,225,0.0,0.0,79,0.00,,SKC,0.58,VWS V14.00,2013-11-01 14:31:00,
2013-11-01 07:33:00,22.3,16.8,30.18,SW,225,0.0,0.0,79,0.00,,SKC,0.58,VWS V14.00,2013-11-01 14:33:00,
2013-11-01 07:34:00,22.7,17.2,30.18,SW,225,0.0,0.0,79,0.00,,SKC,0.58,VWS V14.00,2013-11-01 14:34:00,
2013-11-01 07:35:00,22.7,17.2,30.18,SW,225,0.0,0.0,79,0.00,,SKC,0.58,VWS V14.00,2013-11-01 14:35:00,
2013-11-01 07:36:00,22.9,17.6,30.18,SW,225,0.0,0.0,80,0.00,,SKC,0.58,VWS V14.00,2013-11-01 14:36:00,
2013-11-01 07:38:00,23.8,18.5,30.18,SW,225,0.0,0.0,80,0.00,,SKC,0.58,VWS V14.00,2013-11-01 14:38:00,
2013-11-01 07:40:00,24.3,19.0,30.18,SW,225,0.0,0.0,80,0.00,,SKC,0.58,VWS V14.00,2013-11-01 14:40:00,
2013-11-01 07:41:00,24.5,19.2,30.18,SW,225,0.0,0.0,80,0.00,,SKC,0.58,VWS V14.00,2013-11-01 14:41:00,
2013-11-01 07:43:00,25.2,19.9,30.18,SW,225,0.0,0.0,80,0.00,,SKC,0.58,VWS V14.00,2013-11-01 14:43:00,
2013-11-01 07:45:00,25.7,20.4,30.18,SW,225,0.0,0.0,80,0.00,,SKC,0.58,VWS V14.00,2013-11-01 14:45:00,
2013-11-01 07:46:00,26.1,20.8,30.18,SW,225,0.0,0.0,80,0.00,,SKC,0.58,VWS V14.00,2013-11-01 14:46:00,
2013-11-01 07:49:00,26.5,20.8,30.18,NNW,338,0.0,0.0,79,0.00,,SKC,0.58,VWS V14.00,2013-11-01 14:49:00,
2013-11-01 07:50:00,26.6,21.0,30.18,NNW,338,0.0,0.0,79,0.00,,SKC,0.58,VWS V14.00,2013-11-01 14:50:00,
2013-11-01 07:51:00,26.8,21.2,30.18,NNW,338,0.0,0.0,79,0.00,,SKC,0.58,VWS V14.00,2013-11-01 14:51:00,
2013-11-01 07:53:00,27.0,21.4,30.18,NNW,338,0.0,0.0,79,0.00,,SKC,0.58,VWS V14.00,2013-11-01 14:53:00,
2013-11-01 07:54:00,27.2,21.2,30.18,NNW,338,0.0,0.0,78,0.00,,SKC,0.58,VWS V14.00,2013-11-01 14:54:00,
2013-11-01 07:55:00,27.5,21.6,30.18,NNW,338,0.0,0.0,78,0.00,,SKC,0.58,VWS V14.00,2013-11-01 14:55:00,
2013-11-01 07:57:00,27.9,21.6,30.18,North,0,0.0,0.0,77,0.00,,SKC,0.58,VWS V14.00,2013-11-01 14:57:00,
2013-11-01 07:58:00,27.9,21.6,30.21,North,0,0.0,0.0,77,0.00,,SKC,0.58,VWS V14.00,2013-11-01 14:58:00,
2013-11-01 07:59:00,27.9,21.6,30.21,North,0,0.0,0.0,77,0.00,,SKC,0.58,VWS V14.00,2013-11-01 14:59:00,
2013-11-01 08:00:00,27.4,20.8,30.21,North,0,0.0,0.0,76,0.00,,SKC,0.58,VWS V14.00,2013-11-01 15:00:00,
2013-11-01 08:01:00,27.2,20.6,30.21,North,0,0.0,0.0,76,0.00,,SKC,0.58,VWS V14.00,2013-11-01 15:01:00,
2013-11-01 08:02:00,26.8,20.3,30.21,North,0,0.0,0.0,76,0.00,,SKC,0.58,VWS V14.00,2013-11-01 15:02:00,
2013-11-01 08:03:00,26.5,19.6,30.21,North,0,0.0,0.0,75,0.00,,SKC,0.58,VWS V14.00,2013-11-01 15:03:00,
2013-11-01 08:04:00,26.3,19.5,30.21,North,0,0.0,0.0,75,0.00,,SKC,0.58,VWS V14.00,2013-11-01 15:04:00,
2013-11-01 08:05:00,26.1,19.3,30.21,North,0,0.0,0.0,75,0.00,,SKC,0.58,VWS V14.00,2013-11-01 15:05:00,
2013-11-01 08:06:00,26.1,19.3,30.21,North,0,0.0,0.0,75,0.00,,SKC,0.58,VWS V14.00,2013-11-01 15:06:00,
2013-11-01 08:08:00,26.3,19.8,30.21,North,0,0.0,0.0,76,0.00,,SKC,0.58,VWS V14.00,2013-11-01 15:08:00,
2013-11-01 08:09:00,26.8,20.3,30.21,North,0,0.0,0.0,76,0.00,,SKC,0.58,VWS V14.00,2013-11-01 15:09:00,
2013-11-01 08:10:00,27.9,21.6,30.21,SE,135,0.0,0.0,77,0.00,,SKC,0.58,VWS V14.00,2013-11-01 15:10:00,
2013-11-01 08:11:00,28.3,22.3,30.21,SE,135,0.0,0.0,78,0.00,,SKC,0.58,VWS V14.00,2013-11-01 15:11:00,
2013-11-01 08:13:00,28.8,22.8,30.21,SE,135,0.0,0.0,78,0.00,,SKC,0.58,VWS V14.00,2013-11-01 15:13:00,
2013-11-01 08:14:00,29.0,23.0,30.21,SE,135,0.0,0.0,78,0.00,,SKC,0.58,VWS V14.00,2013-11-01 15:14:00,
2013-11-01 08:16:00,29.5,23.2,30.21,SE,135,0.0,0.0,77,0.00,,SKC,0.58,VWS V14.00,2013-11-01 15:16:00,
2013-11-01 08:17:00,29.7,23.4,30.21,SE,135,0.0,0.0,77,0.00,,SKC,0.58,VWS V14.00,2013-11-01 15:17:00,
2013-11-01 08:18:00,30.4,24.1,30.21,SE,135,0.0,0.0,77,0.00,,SKC,0.58,VWS V14.00,2013-11-01 15:18:00,
2013-11-01 08:19:00,30.8,24.4,30.21,SE,135,0.0,0.0,77,0.00,,SKC,0.58,VWS V14.00,2013-11-01 15:19:00,
2013-11-01 08:21:00,32.0,25.3,30.21,SE,135,0.0,0.0,76,0.00,,SKC,0.58,VWS V14.00,2013-11-01 15:21:00,
2013-11-01 08:22:00,32.0,25.3,30.21,SE,135,0.0,0.0,76,0.00,,SKC,0.58,VWS V14.00,2013-11-01 15:22:00,
2013-11-01 08:24:00,32.0,25.3,30.21,SE,135,0.0,0.0,76,0.00,,SKC,0.58,VWS V14.00,2013-11-01 15:24:00,
2013-11-01 08:26:00,32.9,25.2,30.21,SE,135,0.0,0.0,73,0.00,,SKC,0.58,VWS V14.00,2013-11-01 15:26:00,
2013-11-01 08:27:00,32.9,25.2,30.21,SE,135,0.0,0.0,73,0.00,,SKC,0.58,VWS V14.00,2013-11-01 15:27:00,
2013-11-01 08:29:00,34.2,25.8,30.21,SE,135,0.0,0.0,71,0.00,,SKC,0.58,VWS V14.00,2013-11-01 15:29:00,
2013-11-01 08:31:00,34.4,25.6,30.21,SE,135,0.0,0.0,70,0.00,,SKC,0.58,VWS V14.00,2013-11-01 15:31:00,
2013-11-01 08:32:00,34.7,26.0,30.21,SE,135,0.0,0.0,70,0.00,,SKC,0.58,VWS V14.00,2013-11-01 15:32:00,
2013-11-01 17:12:00,57.6,14.4,30.06,East,90,2.9,2.9,18,0.00,,SKC,0.58,VWS V14.00,2013-11-02 00:12:00,
2013-11-01 17:13:00,57.6,14.4,30.06,SE,135,2.9,2.9,18,0.00,,SKC,0.58,VWS V14.00,2013-11-02 00:13:00,
2013-11-01 17:17:00,57.2,15.4,30.06,East,90,2.9,2.9,19,0.00,,SKC,0.58,VWS V14.00,2013-11-02 00:17:00,
2013-11-01 17:18:00,57.2,15.4,30.06,East,90,2.9,2.9,19,0.00,,SKC,0.58,VWS V14.00,2013-11-02 00:18:00,
2013-11-01 17:22:00,56.3,14.6,30.06,East,90,2.9,2.9,19,0.00,,SKC,0.58,VWS V14.00,2013-11-02 00:22:00,
2013-11-01 17:23:00,56.3,14.6,30.06,East,90,3.6,3.6,19,0.00,,SKC,0.58,VWS V14.00,2013-11-02 00:23:00,
2013-11-01 17:24:00,56.0,14.3,30.06,East,90,3.4,3.4,19,0.00,,SKC,0.58,VWS V14.00,2013-11-02 00:24:00,
2013-11-01 17:27:00,55.4,13.9,30.06,East,90,3.4,3.4,19,0.00,,SKC,0.58,VWS V14.00,2013-11-02 00:27:00,
2013-11-01 17:28:00,55.4,13.9,30.06,East,90,3.4,3.4,19,0.00,,SKC,0.58,VWS V14.00,2013-11-02 00:28:00,
2013-11-01 17:29:00,55.4,13.9,30.06,East,90,3.6,3.6,19,0.00,,SKC,0.58,VWS V14.00,2013-11-02 00:29:00,
2013-11-01 17:32:00,54.7,16.6,30.06,East,90,2.7,2.7,22,0.00,,SKC,0.58,VWS V14.00,2013-11-02 00:32:00,
2013-11-01 17:33:00,54.7,16.6,30.06,East,90,2.9,2.9,22,0.00,,SKC,0.58,VWS V14.00,2013-11-02 00:33:00,
2013-11-01 17:34:00,54.7,16.6,30.06,East,90,3.1,3.1,22,0.00,,SKC,0.58,VWS V14.00,2013-11-02 00:34:00,
2013-11-01 17:37:00,54.2,16.2,30.06,East,90,2.7,2.7,22,0.00,,SKC,0.58,VWS V14.00,2013-11-02 00:37:00,
2013-11-01 17:38:00,53.8,17.9,30.06,East,90,2.7,2.7,24,0.00,,SKC,0.58,VWS V14.00,2013-11-02 00:38:00,
2013-11-01 17:39:00,53.6,17.7,30.06,East,90,3.4,3.4,24,0.00,,SKC,0.58,VWS V14.00,2013-11-02 00:39:00,
2013-11-01 17:40:00,53.6,17.7,30.06,East,90,4.0,4.0,24,0.00,,SKC,0.58,VWS V14.00,2013-11-02 00:40:00,
2013-11-01 17:43:00,52.7,17.9,30.06,East,90,3.1,3.1,25,0.00,,SKC,0.58,VWS V14.00,2013-11-02 00:43:00,
2013-11-01 17:44:00,52.6,17.8,30.06,East,90,3.1,3.1,25,0.00,,SKC,0.58,VWS V14.00,2013-11-02 00:44:00,
2013-11-01 17:45:00,52.0,17.3,30.06,East,90,0.0,0.0,25,0.00,,SKC,0.58,VWS V14.00,2013-11-02 00:45:00,
2013-11-01 17:48:00,51.5,16.8,30.06,East,90,0.0,0.0,25,0.00,,SKC,0.58,VWS V14.00,2013-11-02 00:48:00,
2013-11-01 17:49:00,51.3,17.6,30.06,East,90,2.2,2.2,26,0.00,,SKC,0.58,VWS V14.00,2013-11-02 00:49:00,
2013-11-01 17:51:00,50.9,17.3,30.06,East,90,2.0,2.0,26,0.00,,SKC,0.58,VWS V14.00,2013-11-02 00:51:00,
2013-11-01 17:53:00,50.2,16.7,30.06,East,90,0.0,0.0,26,0.00,,SKC,0.58,VWS V14.00,2013-11-02 00:53:00,
2013-11-01 17:54:00,50.0,16.5,30.06,East,90,0.0,0.0,26,0.00,,SKC,0.58,VWS V14.00,2013-11-02 00:54:00,
2013-11-01 17:57:00,49.5,16.9,30.06,East,90,0.0,0.0,27,0.00,,SKC,0.58,VWS V14.00,2013-11-02 00:57:00,
2013-11-01 17:58:00,49.3,16.8,30.06,East,90,0.0,0.0,27,0.00,,SKC,0.58,VWS V14.00,2013-11-02 00:58:00,
2013-11-01 17:59:00,49.0,16.5,30.06,East,90,0.0,0.0,27,0.00,,SKC,0.58,VWS V14.00,2013-11-02 00:59:00,
2013-11-01 18:00:00,48.8,16.3,30.06,East,90,0.0,0.0,27,0.00,,SKC,0.58,VWS V14.00,2013-11-02 01:00:00,
2013-11-01 18:02:00,48.4,17.6,30.06,East,90,0.0,0.0,29,0.00,,SKC,0.58,VWS V14.00,2013-11-02 01:02:00,
2013-11-01 18:03:00,48.4,17.6,30.06,East,90,0.0,0.0,29,0.00,,SKC,0.58,VWS V14.00,2013-11-02 01:03:00,
2013-11-01 18:04:00,48.2,17.5,30.06,East,90,0.0,0.0,29,0.00,,SKC,0.58,VWS V14.00,2013-11-02 01:04:00,
2013-11-01 18:05:00,48.2,17.5,30.06,East,90,0.0,0.0,29,0.00,,SKC,0.58,VWS V14.00,2013-11-02 01:05:00,
2013-11-01 18:08:00,47.7,17.8,30.06,East,90,0.0,0.0,30,0.00,,SKC,0.58,VWS V14.00,2013-11-02 01:08:00,
2013-11-01 18:09:00,47.5,17.6,30.06,East,90,0.0,0.0,30,0.00,,SKC,0.58,VWS V14.00,2013-11-02 01:09:00,
2013-11-01 18:10:00,47.5,17.6,30.06,East,90,0.0,0.0,30,0.00,,SKC,0.58,VWS V14.00,2013-11-02 01:10:00,
2013-11-01 18:13:00,47.0,17.9,30.06,East,90,0.0,0.0,31,0.00,,SKC,0.58,VWS V14.00,2013-11-02 01:13:00,
2013-11-01 18:14:00,46.8,17.8,30.06,East,90,0.0,0.0,31,0.00,,SKC,0.58,VWS V14.00,2013-11-02 01:14:00,
2013-11-01 18:15:00,46.8,17.8,30.06,East,90,0.0,0.0,31,0.00,,SKC,0.58,VWS V14.00,2013-11-02 01:15:00,
2013-11-01 18:16:00,46.4,17.5,30.06,East,90,0.0,0.0,31,0.00,,SKC,0.58,VWS V14.00,2013-11-02 01:16:00,
2013-11-01 18:18:00,46.3,18.0,30.06,East,90,0.0,0.0,32,0.00,,SKC,0.58,VWS V14.00,2013-11-02 01:18:00,
2013-11-01 18:20:00,46.1,17.9,30.06,East,90,0.0,0.0,32,0.00,,SKC,0.58,VWS V14.00,2013-11-02 01:20:00,
2013-11-01 18:21:00,45.9,18.4,30.06,East,90,0.0,0.0,33,0.00,,SKC,0.58,VWS V14.00,2013-11-02 01:21:00,
2013-11-01 18:23:00,45.5,18.8,30.06,East,90,0.0,0.0,34,0.00,,SKC,0.58,VWS V14.00,2013-11-02 01:23:00,
2013-11-01 18:24:00,45.5,18.1,30.06,East,90,0.0,0.0,33,0.00,,SKC,0.58,VWS V14.00,2013-11-02 01:24:00,
2013-11-01 18:25:00,45.4,18.0,30.06,East,90,0.0,0.0,33,0.00,,SKC,0.58,VWS V14.00,2013-11-02 01:25:00,
2013-11-01 18:26:00,45.2,17.8,30.06,East,90,0.0,0.0,33,0.00,,SKC,0.58,VWS V14.00,2013-11-02 01:26:00,
2013-11-01 18:28:00,44.8,18.9,30.06,East,90,0.0,0.0,35,0.00,,SKC,0.58,VWS V14.00,2013-11-02 01:28:00,
2013-11-01 18:29:00,44.8,18.9,30.06,East,90,0.0,0.0,35,0.00,,SKC,0.58,VWS V14.00,2013-11-02 01:29:00,
2013-11-01 18:30:00,44.6,18.7,30.06,East,90,0.0,0.0,35,0.00,,SKC,0.58,VWS V14.00,2013-11-02 01:30:00,
2013-11-01 18:31:00,44.6,18.7,30.06,East,90,0.0,0.0,35,0.00,,SKC,0.58,VWS V14.00,2013-11-02 01:31:00,
2013-11-01 18:38:00,43.6,18.4,30.06,East,90,0.0,0.0,36,0.00,,SKC,0.58,VWS V14.00,2013-11-02 01:38:00,
2013-11-01 18:43:00,43.0,17.9,30.06,East,90,0.0,0.0,36,0.00,,SKC,0.58,VWS V14.00,2013-11-02 01:43:00,
2013-11-01 18:44:00,43.0,18.5,30.06,East,90,0.0,0.0,37,0.00,,SKC,0.58,VWS V14.00,2013-11-02 01:44:00,
2013-11-01 18:48:00,42.5,18.1,30.06,East,90,0.0,0.0,37,0.00,,SKC,0.58,VWS V14.00,2013-11-02 01:48:00,
2013-11-01 18:49:00,42.5,18.1,30.06,East,90,0.0,0.0,37,0.00,,SKC,0.58,VWS V14.00,2013-11-02 01:49:00,
2013-11-01 18:53:00,42.1,19.0,30.06,East,90,0.0,0.0,39,0.00,,SKC,0.58,VWS V14.00,2013-11-02 01:53:00,
2013-11-01 18:54:00,42.1,19.0,30.06,East,90,0.0,0.0,39,0.00,,SKC,0.58,VWS V14.00,2013-11-02 01:54:00,
2013-11-01 18:58:00,42.1,19.0,30.06,NNE,22,0.0,0.0,39,0.00,,SKC,0.58,VWS V14.00,2013-11-02 01:58:00,
2013-11-01 18:59:00,42.1,19.0,30.06,NNE,22,0.0,0.0,39,0.00,,SKC,0.58,VWS V14.00,2013-11-02 01:59:00,
2013-11-01 19:00:00,42.1,19.0,30.06,NNE,22,0.0,0.0,39,0.00,,SKC,0.58,VWS V14.00,2013-11-02 02:00:00,
2013-11-01 19:03:00,41.9,18.8,30.06,NNE,22,0.0,0.0,39,0.00,,SKC,0.58,VWS V14.00,2013-11-02 02:03:00,
2013-11-01 19:04:00,41.9,18.8,30.06,NNE,22,0.0,0.0,39,0.00,,SKC,0.58,VWS V14.00,2013-11-02 02:04:00,
2013-11-01 19:05:00,41.8,18.6,30.06,NNE,22,0.0,0.0,39,0.00,,SKC,0.58,VWS V14.00,2013-11-02 02:05:00,
2013-11-01 19:08:00,41.4,18.3,30.06,NNE,22,0.0,0.0,39,0.00,,SKC,0.58,VWS V14.00,2013-11-02 02:08:00,
2013-11-01 19:09:00,41.4,18.3,30.06,NNE,22,0.0,0.0,39,0.00,,SKC,0.58,VWS V14.00,2013-11-02 02:09:00,
2013-11-01 19:10:00,41.2,18.1,30.06,NNE,22,0.0,0.0,39,0.00,,SKC,0.58,VWS V14.00,2013-11-02 02:10:00,
2013-11-01 19:14:00,40.9,18.4,30.06,NNE,22,0.0,0.0,40,0.00,,SKC,0.58,VWS V14.00,2013-11-02 02:14:00,
2013-11-01 19:15:00,40.9,17.8,30.06,NNE,22,0.0,0.0,39,0.00,,SKC,0.58,VWS V14.00,2013-11-02 02:15:00,
2013-11-01 19:19:00,40.7,18.8,30.06,SW,225,0.0,0.0,41,0.00,,SKC,0.58,VWS V14.00,2013-11-02 02:19:00,
2013-11-01 19:20:00,40.3,18.5,30.06,SW,225,0.0,0.0,41,0.00,,SKC,0.58,VWS V14.00,2013-11-02 02:20:00,
2013-11-01 19:24:00,40.1,18.3,30.06,SW,225,0.0,0.0,41,0.00,,SKC,0.58,VWS V14.00,2013-11-02 02:24:00,
2013-11-01 19:25:00,40.1,18.9,30.06,SW,225,1.3,1.3,42,0.00,,SKC,0.58,VWS V14.00,2013-11-02 02:25:00,
2013-11-01 19:29:00,40.1,19.5,30.06,SW,225,0.0,0.0,43,0.00,,SKC,0.58,VWS V14.00,2013-11-02 02:29:00,
2013-11-01 19:30:00,40.0,19.3,30.06,SW,225,0.0,0.0,43,0.00,,SKC,0.58,VWS V14.00,2013-11-02 02:30:00,
2013-11-01 19:34:00,39.6,19.5,30.06,SW,225,0.0,0.0,44,0.00,,SKC,0.58,VWS V14.00,2013-11-02 02:34:00,
2013-11-01 19:36:00,39.4,18.8,30.06,SW,225,0.0,0.0,43,0.00,,SKC,0.58,VWS V14.00,2013-11-02 02:36:00,
2013-11-01 19:39:00,39.1,18.5,30.06,SW,225,0.0,0.0,43,0.00,,SKC,0.58,VWS V14.00,2013-11-02 02:39:00,
2013-11-01 19:40:00,39.1,18.5,30.06,SW,225,0.0,0.0,43,0.00,,SKC,0.58,VWS V14.00,2013-11-02 02:40:00,
2013-11-01 19:41:00,39.1,18.5,30.06,SW,225,0.0,0.0,43,0.00,,SKC,0.58,VWS V14.00,2013-11-02 02:41:00,
2013-11-01 19:44:00,38.9,18.8,30.06,SW,225,0.0,0.0,44,0.00,,SKC,0.58,VWS V14.00,2013-11-02 02:44:00,
2013-11-01 19:45:00,38.9,18.8,30.06,SW,225,0.0,0.0,44,0.00,,SKC,0.58,VWS V14.00,2013-11-02 02:45:00,
2013-11-01 19:46:00,38.7,19.2,30.06,SW,225,0.0,0.0,45,0.00,,SKC,0.58,VWS V14.00,2013-11-02 02:46:00,
2013-11-01 19:49:00,38.7,19.7,30.06,SW,225,0.0,0.0,46,0.00,,SKC,0.58,VWS V14.00,2013-11-02 02:49:00,
2013-11-01 19:50:00,38.7,19.7,30.06,SW,225,0.0,0.0,46,0.00,,SKC,0.58,VWS V14.00,2013-11-02 02:50:00,
2013-11-01 19:51:00,38.5,19.5,30.06,SW,225,0.0,0.0,46,0.00,,SKC,0.58,VWS V14.00,2013-11-02 02:51:00,
2013-11-01 19:54:00,38.3,18.9,30.06,SW,225,0.0,0.0,45,0.00,,SKC,0.58,VWS V14.00,2013-11-02 02:54:00,
2013-11-01 19:55:00,38.3,18.9,30.06,SW,225,0.0,0.0,45,0.00,,SKC,0.58,VWS V14.00,2013-11-02 02:55:00,
2013-11-01 19:56:00,38.3,18.9,30.06,SW,225,0.0,0.0,45,0.00,,SKC,0.58,VWS V14.00,2013-11-02 02:56:00,
2013-11-01 20:00:00,38.3,20.4,30.06,SW,225,0.0,0.0,48,0.00,,SKC,0.58,VWS V14.00,2013-11-02 03:00:00,
2013-11-01 20:01:00,38.3,20.9,30.06,SW,225,0.0,0.0,49,0.00,,SKC,0.58,VWS V14.00,2013-11-02 03:01:00,
2013-11-01 20:02:00,38.3,21.3,30.06,SW,225,0.0,0.0,50,0.00,,SKC,0.58,VWS V14.00,2013-11-02 03:02:00,
2013-11-01 20:05:00,38.5,20.5,30.06,WSW,248,0.0,0.0,48,0.00,,SKC,0.58,VWS V14.00,2013-11-02 03:05:00,
2013-11-01 20:06:00,39.1,21.5,30.06,WSW,248,0.0,0.0,49,0.00,,SKC,0.58,VWS V14.00,2013-11-02 03:06:00,
2013-11-01 20:07:00,39.1,21.5,30.06,NNE,22,0.0,0.0,49,0.00,,SKC,0.58,VWS V14.00,2013-11-02 03:07:00,
2013-11-01 20:10:00,39.1,21.5,30.06,NNE,22,0.0,0.0,49,0.00,,SKC,0.58,VWS V14.00,2013-11-02 03:10:00,
2013-11-01 20:11:00,39.1,21.5,30.06,NNE,22,0.0,0.0,49,0.00,,SKC,0.58,VWS V14.00,2013-11-02 03:11:00,
2013-11-01 20:12:00,39.2,21.7,30.06,NNE,22,0.0,0.0,49,0.00,,SKC,0.58,VWS V14.00,2013-11-02 03:12:00,
2013-11-01 20:15:00,38.7,20.7,30.06,NNE,22,0.0,0.0,48,0.00,,SKC,0.58,VWS V14.00,2013-11-02 03:15:00,
2013-11-01 20:16:00,38.7,20.7,30.06,NNE,22,0.0,0.0,48,0.00,,SKC,0.58,VWS V14.00,2013-11-02 03:16:00,
2013-11-01 20:17:00,38.7,20.7,30.06,NNE,22,0.0,0.0,48,0.00,,SKC,0.58,VWS V14.00,2013-11-02 03:17:00,
2013-11-01 20:20:00,38.5,20.5,30.06,NNE,22,0.0,0.0,48,0.00,,SKC,0.58,VWS V14.00,2013-11-02 03:20:00,
2013-11-01 20:21:00,38.5,20.5,30.06,NNE,22,0.0,0.0,48,0.00,,SKC,0.58,VWS V14.00,2013-11-02 03:21:00,
2013-11-01 20:22:00,38.3,20.4,30.06,NNE,22,0.0,0.0,48,0.00,,SKC,0.58,VWS V14.00,2013-11-02 03:22:00,
2013-11-01 20:23:00,38.3,20.4,30.06,NNE,22,0.0,0.0,48,0.00,,SKC,0.58,VWS V14.00,2013-11-02 03:23:00,
2013-11-01 20:25:00,38.2,20.2,30.06,NNE,22,0.0,0.0,48,0.00,,SKC,0.58,VWS V14.00,2013-11-02 03:25:00,
2013-11-01 20:26:00,38.2,20.7,30.06,NNE,22,0.0,0.0,49,0.00,,SKC,0.58,VWS V14.00,2013-11-02 03:26:00,
2013-11-01 20:27:00,38.2,20.7,30.06,NNE,22,0.0,0.0,49,0.00,,SKC,0.58,VWS V14.00,2013-11-02 03:27:00,
2013-11-01 20:28:00,38.2,20.7,30.06,NNE,22,0.0,0.0,49,0.00,,SKC,0.58,VWS V14.00,2013-11-02 03:28:00,
2013-11-01 20:30:00,38.3,20.9,30.06,NNE,22,0.0,0.0,49,0.00,,SKC,0.58,VWS V14.00,2013-11-02 03:30:00,
2013-11-01 20:32:00,38.3,20.9,30.06,NNE,22,0.0,0.0,49,0.00,,SKC,0.58,VWS V14.00,2013-11-02 03:32:00,
2013-11-01 20:33:00,38.3,20.9,30.06,NNE,22,0.0,0.0,49,0.00,,SKC,0.58,VWS V14.00,2013-11-02 03:33:00,
2013-11-01 20:35:00,38.0,20.5,30.06,NNE,22,0.0,0.0,49,0.00,,SKC,0.58,VWS V14.00,2013-11-02 03:35:00,
2013-11-01 20:37:00,38.0,20.5,30.06,NW,315,0.0,0.0,49,0.00,,SKC,0.58,VWS V14.00,2013-11-02 03:37:00,
2013-11-01 20:38:00,38.0,20.0,30.06,NW,315,0.0,0.0,48,0.00,,SKC,0.58,VWS V14.00,2013-11-02 03:38:00,
2013-11-01 20:40:00,37.8,20.4,30.06,NW,315,0.0,0.0,49,0.00,,SKC,0.58,VWS V14.00,2013-11-02 03:40:00,
2013-11-01 20:42:00,37.4,20.0,30.06,NW,315,0.0,0.0,49,0.00,,SKC,0.58,VWS V14.00,2013-11-02 03:42:00,
2013-11-01 20:43:00,37.3,20.3,30.06,NW,315,0.0,0.0,50,0.00,,SKC,0.58,VWS V14.00,2013-11-02 03:43:00,
2013-11-01 20:46:00,36.9,20.0,30.06,NW,315,0.9,0.9,50,0.00,,SKC,0.58,VWS V14.00,2013-11-02 03:46:00,
2013-11-01 20:47:00,36.9,20.0,30.06,NW,315,0.0,0.0,50,0.00,,SKC,0.58,VWS V14.00,2013-11-02 03:47:00,
2013-11-01 20:48:00,36.7,19.9,30.06,NW,315,0.0,0.0,50,0.00,,SKC,0.58,VWS V14.00,2013-11-02 03:48:00,
2013-11-01 20:49:00,36.7,19.9,30.06,NW,315,0.0,0.0,50,0.00,,SKC,0.58,VWS V14.00,2013-11-02 03:49:00,
2013-11-01 20:51:00,36.5,19.7,30.06,NW,315,0.0,0.0,50,0.00,,SKC,0.58,VWS V14.00,2013-11-02 03:51:00,
2013-11-01 20:52:00,36.5,19.7,30.06,NW,315,0.0,0.0,50,0.00,,SKC,0.58,VWS V14.00,2013-11-02 03:52:00,
2013-11-01 20:53:00,36.4,19.5,30.06,NW,315,0.0,0.0,50,0.00,,SKC,0.58,VWS V14.00,2013-11-02 03:53:00,
2013-11-01 20:54:00,36.4,19.5,30.06,NW,315,0.0,0.0,50,0.00,,SKC,0.58,VWS V14.00,2013-11-02 03:54:00,
2013-11-01 20:56:00,36.2,19.8,30.06,NW,315,0.0,0.0,51,0.00,,SKC,0.58,VWS V14.00,2013-11-02 03:56:00,
2013-11-01 20:57:00,36.0,19.6,30.06,NW,315,0.0,0.0,51,0.00,,SKC,0.58,VWS V14.00,2013-11-02 03:57:00,
2013-11-01 20:58:00,36.0,19.6,30.03,NW,315,0.0,0.0,51,0.00,,SKC,0.58,VWS V14.00,2013-11-02 03:58:00,
2013-11-01 20:59:00,36.0,19.6,30.03,NW,315,0.0,0.0,51,0.00,,SKC,0.58,VWS V14.00,2013-11-02 03:59:00,
2013-11-01 21:00:00,35.8,19.5,30.03,NW,315,0.0,0.0,51,0.00,,SKC,0.58,VWS V14.00,2013-11-02 04:00:00,
2013-11-01 21:01:00,35.8,19.5,30.03,NW,315,0.0,0.0,51,0.00,,SKC,0.58,VWS V14.00,2013-11-02 04:01:00,
2013-11-01 21:06:00,35.6,19.3,30.03,NW,315,0.0,0.0,51,0.00,,SKC,0.58,VWS V14.00,2013-11-02 04:06:00,
2013-11-01 21:11:00,35.6,19.8,30.03,NW,315,0.0,0.0,52,0.00,,SKC,0.58,VWS V14.00,2013-11-02 04:11:00,
2013-11-01 21:16:00,35.6,19.8,30.03,NW,315,0.0,0.0,52,0.00,,SKC,0.58,VWS V14.00,2013-11-02 04:16:00,
2013-11-01 21:17:00,35.5,19.6,30.03,NW,315,0.0,0.0,52,0.00,,SKC,0.58,VWS V14.00,2013-11-02 04:17:00,
2013-11-01 21:21:00,35.5,20.0,30.03,NW,315,0.0,0.0,53,0.00,,SKC,0.58,VWS V14.00,2013-11-02 04:21:00,
2013-11-01 21:22:00,35.5,20.0,30.03,NW,315,0.0,0.0,53,0.00,,SKC,0.58,VWS V14.00,2013-11-02 04:22:00,
2013-11-01 21:26:00,35.3,19.9,30.03,NW,315,0.0,0.0,53,0.00,,SKC,0.58,VWS V14.00,2013-11-02 04:26:00,
2013-11-01 21:27:00,35.3,19.9,30.03,NW,315,0.0,0.0,53,0.00,,SKC,0.58,VWS V14.00,2013-11-02 04:27:00,
2013-11-01 21:31:00,35.3,19.9,30.03,NW,315,0.0,0.0,53,0.00,,SKC,0.58,VWS V14.00,2013-11-02 04:31:00,
2013-11-01 21:32:00,35.3,19.9,30.03,NW,315,0.0,0.0,53,0.00,,SKC,0.58,VWS V14.00,2013-11-02 04:32:00,
2013-11-01 21:36:00,35.1,20.1,30.03,NW,315,0.0,0.0,54,0.00,,SKC,0.58,VWS V14.00,2013-11-02 04:36:00,
2013-11-01 21:37:00,35.1,20.1,30.03,NW,315,0.0,0.0,54,0.00,,SKC,0.58,VWS V14.00,2013-11-02 04:37:00,
2013-11-01 21:41:00,34.9,20.4,30.03,NW,315,0.0,0.0,55,0.00,,SKC,0.58,VWS V14.00,2013-11-02 04:41:00,
2013-11-01 21:42:00,34.9,20.4,30.03,NW,315,0.0,0.0,55,0.00,,SKC,0.58,VWS V14.00,2013-11-02 04:42:00,
2013-11-01 21:46:00,34.6,20.1,30.03,NW,315,0.0,0.0,55,0.00,,SKC,0.58,VWS V14.00,2013-11-02 04:46:00,
2013-11-01 21:47:00,34.6,20.1,30.03,NW,315,0.0,0.0,55,0.00,,SKC,0.58,VWS V14.00,2013-11-02 04:47:00,
2013-11-01 21:48:00,34.4,19.9,30.03,NW,315,0.0,0.0,55,0.00,,SKC,0.58,VWS V14.00,2013-11-02 04:48:00,
2013-11-01 21:51:00,34.0,20.0,30.03,NW,315,0.0,0.0,56,0.00,,SKC,0.58,VWS V14.00,2013-11-02 04:51:00,
2013-11-01 21:52:00,34.0,20.0,30.03,NW,315,0.0,0.0,56,0.00,,SKC,0.58,VWS V14.00,2013-11-02 04:52:00,
2013-11-01 21:53:00,33.8,19.8,30.03,NW,315,0.0,0.0,56,0.00,,SKC,0.58,VWS V14.00,2013-11-02 04:53:00,
2013-11-01 21:54:00,33.8,19.8,30.03,NW,315,0.0,0.0,56,0.00,,SKC,0.58,VWS V14.00,2013-11-02 04:54:00,
2013-11-01 21:57:00,33.7,19.6,30.03,NW,315,0.0,0.0,56,0.00,,SKC,0.58,VWS V14.00,2013-11-02 04:57:00,
2013-11-01 21:58:00,33.7,19.6,30.03,NW,315,0.0,0.0,56,0.00,,SKC,0.58,VWS V14.00,2013-11-02 04:58:00,
2013-11-01 21:59:00,33.7,19.6,30.03,NW,315,0.0,0.0,56,0.00,,SKC,0.58,VWS V14.00,2013-11-02 04:59:00,
2013-11-01 22:02:00,33.7,20.1,30.03,NW,315,0.0,0.0,57,0.00,,SKC,0.58,VWS V14.00,2013-11-02 05:02:00,
2013-11-01 22:03:00,33.7,20.5,30.03,NW,315,0.0,0.0,58,0.00,,SKC,0.58,VWS V14.00,2013-11-02 05:03:00,
2013-11-01 22:04:00,33.7,20.5,30.03,NW,315,0.0,0.0,58,0.00,,SKC,0.58,VWS V14.00,2013-11-02 05:04:00,
2013-11-01 22:07:00,33.7,20.5,30.03,NW,315,0.0,0.0,58,0.00,,SKC,0.58,VWS V14.00,2013-11-02 05:07:00,
2013-11-01 22:08:00,33.5,20.7,30.03,NW,315,0.0,0.0,59,0.00,,SKC,0.58,VWS V14.00,2013-11-02 05:08:00,
2013-11-01 22:09:00,33.5,21.1,30.03,NW,315,0.0,0.0,60,0.00,,SKC,0.58,VWS V14.00,2013-11-02 05:09:00,
2013-11-01 22:10:00,33.3,20.9,30.03,NW,315,0.0,0.0,60,0.00,,SKC,0.58,VWS V14.00,2013-11-02 05:10:00,
2013-11-01 22:12:00,33.1,21.1,30.03,NW,315,0.0,0.0,61,0.00,,SKC,0.58,VWS V14.00,2013-11-02 05:12:00,
2013-11-01 22:13:00,33.1,20.8,30.03,NW,315,0.0,0.0,60,0.00,,SKC,0.58,VWS V14.00,2013-11-02 05:13:00,
2013-11-01 22:14:00,33.1,20.8,30.03,NW,315,0.0,0.0,60,0.00,,SKC,0.58,VWS V14.00,2013-11-02 05:14:00,
2013-11-01 22:15:00,33.1,20.8,30.03,NW,315,0.0,0.0,60,0.00,,SKC,0.58,VWS V14.00,2013-11-02 05:15:00,
2013-11-01 22:17:00,33.3,20.9,30.03,ESE,112,0.0,0.0,60,0.00,,SKC,0.58,VWS V14.00,2013-11-02 05:17:00,
2013-11-01 22:18:00,33.3,20.9,30.03,ESE,112,0.0,0.0,60,0.00,,SKC,0.58,VWS V14.00,2013-11-02 05:18:00,
2013-11-01 22:19:00,33.5,21.5,30.03,ESE,112,0.0,0.0,61,0.00,,SKC,0.58,VWS V14.00,2013-11-02 05:19:00,
2013-11-01 22:20:00,33.3,21.3,30.03,ESE,112,0.0,0.0,61,0.00,,SKC,0.58,VWS V14.00,2013-11-02 05:20:00,
2013-11-01 22:22:00,33.3,21.3,30.03,ESE,112,0.0,0.0,61,0.00,,SKC,0.58,VWS V14.00,2013-11-02 05:22:00,
2013-11-01 22:23:00,33.3,21.3,30.03,ESE,112,0.0,0.0,61,0.00,,SKC,0.58,VWS V14.00,2013-11-02 05:23:00,
2013-11-01 22:24:00,33.3,21.3,30.03,ESE,112,0.0,0.0,61,0.00,,SKC,0.58,VWS V14.00,2013-11-02 05:24:00,
2013-11-01 22:25:00,33.1,21.1,30.03,ESE,112,0.0,0.0,61,0.00,,SKC,0.58,VWS V14.00,2013-11-02 05:25:00,
2013-11-01 22:27:00,33.1,20.8,30.03,ESE,112,0.0,0.0,60,0.00,,SKC,0.58,VWS V14.00,2013-11-02 05:27:00,
2013-11-01 22:28:00,33.1,21.1,30.03,ESE,112,0.0,0.0,61,0.00,,SKC,0.58,VWS V14.00,2013-11-02 05:28:00,
2013-11-01 22:29:00,32.9,21.0,30.03,ESE,112,0.0,0.0,61,0.00,,SKC,0.58,VWS V14.00,2013-11-02 05:29:00,
2013-11-01 22:31:00,32.8,20.8,30.03,ESE,112,0.0,0.0,61,0.00,,SKC,0.58,VWS V14.00,2013-11-02 05:31:00,
2013-11-01 22:32:00,32.6,20.6,30.03,ESE,112,0.0,0.0,61,0.00,,SKC,0.58,VWS V14.00,2013-11-02 05:32:00,
2013-11-01 22:33:00,32.6,20.6,30.03,ESE,112,0.0,0.0,61,0.00,,SKC,0.58,VWS V14.00,2013-11-02 05:33:00,
2013-11-01 22:34:00,32.6,21.0,30.03,ESE,112,0.0,0.0,62,0.00,,SKC,0.58,VWS V14.00,2013-11-02 05:34:00,
2013-11-01 22:35:00,32.6,20.6,30.03,East,90,0.0,0.0,61,0.00,,SKC,0.58,VWS V14.00,2013-11-02 05:35:00,
2013-11-01 22:36:00,32.6,20.6,30.03,East,90,0.0,0.0,61,0.00,,SKC,0.58,VWS V14.00,2013-11-02 05:36:00,
2013-11-01 22:37:00,32.4,20.5,30.03,East,90,0.0,0.0,61,0.00,,SKC,0.58,VWS V14.00,2013-11-02 05:37:00,
2013-11-01 22:38:00,32.6,21.0,30.03,East,90,0.0,0.0,62,0.00,,SKC,0.58,VWS V14.00,2013-11-02 05:38:00,
2013-11-01 22:39:00,32.6,21.0,30.03,East,90,0.0,0.0,62,0.00,,SKC,0.58,VWS V14.00,2013-11-02 05:39:00,
2013-11-01 22:40:00,32.4,20.5,30.03,East,90,0.0,0.0,61,0.00,,SKC,0.58,VWS V14.00,2013-11-02 05:40:00,
2013-11-01 22:41:00,32.4,20.5,30.03,East,90,0.0,0.0,61,0.00,,SKC,0.58,VWS V14.00,2013-11-02 05:41:00,
2013-11-01 22:42:00,32.2,20.7,30.03,East,90,0.0,0.0,62,0.00,,SKC,0.58,VWS V14.00,2013-11-02 05:42:00,
2013-11-01 22:44:00,32.0,20.5,30.03,East,90,0.0,0.0,62,0.00,,SKC,0.58,VWS V14.00,2013-11-02 05:44:00,
2013-11-01 22:45:00,32.0,20.5,30.03,East,90,0.0,0.0,62,0.00,,SKC,0.58,VWS V14.00,2013-11-02 05:45:00,
2013-11-01 22:46:00,31.9,20.3,30.03,East,90,0.0,0.0,62,0.00,,SKC,0.58,VWS V14.00,2013-11-02 05:46:00,
2013-11-01 22:47:00,31.9,20.3,30.03,East,90,0.0,0.0,62,0.00,,SKC,0.58,VWS V14.00,2013-11-02 05:47:00,
2013-11-01 22:49:00,31.7,20.5,30.03,East,90,0.0,0.0,63,0.00,,SKC,0.58,VWS V14.00,2013-11-02 05:49:00,
2013-11-01 22:50:00,31.7,20.5,30.03,East,90,0.0,0.0,63,0.00,,SKC,0.58,VWS V14.00,2013-11-02 05:50:00,
2013-11-01 22:51:00,31.5,20.4,30.03,East,90,0.0,0.0,63,0.00,,SKC,0.58,VWS V14.00,2013-11-02 05:51:00,
2013-11-01 22:52:00,31.5,20.4,30.03,East,90,0.0,0.0,63,0.00,,SKC,0.58,VWS V14.00,2013-11-02 05:52:00,
2013-11-01 22:54:00,31.3,20.2,30.03,NNE,22,0.0,0.0,63,0.00,,SKC,0.58,VWS V14.00,2013-11-02 05:54:00,
2013-11-01 22:55:00,31.3,20.2,30.03,NNE,22,0.0,0.0,63,0.00,,SKC,0.58,VWS V14.00,2013-11-02 05:55:00,
2013-11-01 22:57:00,31.3,20.6,30.03,NNE,22,0.0,0.0,64,0.00,,SKC,0.58,VWS V14.00,2013-11-02 05:57:00,
2013-11-01 23:00:00,31.3,20.6,30.03,NNE,22,0.0,0.0,64,0.00,,SKC,0.58,VWS V14.00,2013-11-02 06:00:00,
2013-11-01 23:01:00,31.3,20.2,30.03,NNE,22,0.0,0.0,63,0.00,,SKC,0.58,VWS V14.00,2013-11-02 06:01:00,
2013-11-01 23:02:00,31.1,20.4,30.03,NNE,22,0.0,0.0,64,0.00,,SKC,0.58,VWS V14.00,2013-11-02 06:02:00,
2013-11-01 23:05:00,31.0,20.2,30.03,NNE,22,0.0,0.0,64,0.00,,SKC,0.58,VWS V14.00,2013-11-02 06:05:00,
2013-11-01 23:06:00,31.1,20.0,30.03,NNE,22,0.0,0.0,63,0.00,,SKC,0.58,VWS V14.00,2013-11-02 06:06:00,
2013-11-01 23:07:00,31.1,20.4,30.03,NNE,22,0.0,0.0,64,0.00,,SKC,0.58,VWS V14.00,2013-11-02 06:07:00,
2013-11-01 23:08:00,31.1,20.4,30.03,NNE,22,0.0,0.0,64,0.00,,SKC,0.58,VWS V14.00,2013-11-02 06:08:00,
2013-11-01 23:10:00,31.1,20.0,30.03,NNE,22,0.0,0.0,63,0.00,,SKC,0.58,VWS V14.00,2013-11-02 06:10:00,
2013-11-01 23:11:00,31.1,20.0,30.03,NNE,22,0.0,0.0,63,0.00,,SKC,0.58,VWS V14.00,2013-11-02 06:11:00,
2013-11-01 23:12:00,31.1,20.0,30.03,NNE,22,0.0,0.0,63,0.00,,SKC,0.58,VWS V14.00,2013-11-02 06:12:00,
2013-11-01 23:13:00,31.3,19.8,30.03,NNE,22,0.0,0.0,62,0.00,,SKC,0.58,VWS V14.00,2013-11-02 06:13:00,
2013-11-01 23:15:00,31.3,19.8,30.03,NNE,22,0.9,0.9,62,0.00,,SKC,0.58,VWS V14.00,2013-11-02 06:15:00,
2013-11-01 23:16:00,31.3,19.8,30.03,NNE,22,0.0,0.0,62,0.00,,SKC,0.58,VWS V14.00,2013-11-02 06:16:00,
2013-11-01 23:17:00,30.8,19.3,30.03,NNE,22,0.0,0.0,62,0.00,,SKC,0.58,VWS V14.00,2013-11-02 06:17:00,
2013-11-01 23:18:00,30.8,19.7,30.03,NNE,22,0.0,0.0,63,0.00,,SKC,0.58,VWS V14.00,2013-11-02 06:18:00,
2013-11-01 23:20:00,30.8,19.7,30.03,NNE,22,0.0,0.0,63,0.00,,SKC,0.58,VWS V14.00,2013-11-02 06:20:00,
2013-11-01 23:21:00,30.8,19.7,30.03,NNE,22,0.0,0.0,63,0.00,,SKC,0.58,VWS V14.00,2013-11-02 06:21:00,
2013-11-01 23:23:00,30.8,20.1,30.03,NNE,22,0.0,0.0,64,0.00,,SKC,0.58,VWS V14.00,2013-11-02 06:23:00,
2013-11-01 23:25:00,30.8,19.7,30.03,NNE,22,0.0,0.0,63,0.00,,SKC,0.58,VWS V14.00,2013-11-02 06:25:00,
2013-11-01 23:26:00,30.8,19.7,30.03,NNE,22,0.0,0.0,63,0.00,,SKC,0.58,VWS V14.00,2013-11-02 06:26:00,
2013-11-01 23:28:00,30.8,19.7,30.03,NNE,22,0.0,0.0,63,0.00,,SKC,0.58,VWS V14.00,2013-11-02 06:28:00,
2013-11-01 23:30:00,30.8,20.1,30.03,South,180,0.0,0.0,64,0.00,,SKC,0.58,VWS V14.00,2013-11-02 06:30:00,
2013-11-01 23:31:00,30.8,20.1,30.03,South,180,0.0,0.0,64,0.00,,SKC,0.58,VWS V14.00,2013-11-02 06:31:00,
2013-11-01 23:32:00,30.8,20.8,30.03,South,180,0.0,0.0,66,0.00,,SKC,0.58,VWS V14.00,2013-11-02 06:32:00,
2013-11-01 23:33:00,30.8,20.8,30.03,South,180,0.0,0.0,66,0.00,,SKC,0.58,VWS V14.00,2013-11-02 06:33:00,
2013-11-01 23:35:00,30.6,20.6,30.03,South,180,0.0,0.0,66,0.00,,SKC,0.58,VWS V14.00,2013-11-02 06:35:00,
2013-11-01 23:36:00,30.6,20.6,30.03,South,180,0.0,0.0,66,0.00,,SKC,0.58,VWS V14.00,2013-11-02 06:36:00,
2013-11-01 23:37:00,30.4,20.4,30.03,South,180,0.0,0.0,66,0.00,,SKC,0.58,VWS V14.00,2013-11-02 06:37:00,
2013-11-01 23:38:00,30.6,20.2,30.03,South,180,0.0,0.0,65,0.00,,SKC,0.58,VWS V14.00,2013-11-02 06:38:00,
2013-11-01 23:39:00,30.6,20.2,30.03,South,180,0.0,0.0,65,0.00,,SKC,0.58,VWS V14.00,2013-11-02 06:39:00,
2013-11-01 23:40:00,30.6,20.2,30.03,South,180,0.0,0.0,65,0.00,,SKC,0.58,VWS V14.00,2013-11-02 06:40:00,
2013-11-01 23:42:00,30.8,20.8,30.03,South,180,0.0,0.0,66,0.00,,SKC,0.58,VWS V14.00,2013-11-02 06:42:00,
2013-11-01 23:44:00,30.8,20.8,30.00,South,180,0.0,0.0,66,0.00,,SKC,0.58,VWS V14.00,2013-11-02 06:44:00,
2013-11-01 23:45:00,30.6,21.0,30.00,South,180,0.0,0.0,67,0.00,,SKC,0.58,VWS V14.00,2013-11-02 06:45:00,
2013-11-01 23:47:00,30.4,20.8,30.00,South,180,0.0,0.0,67,0.00,,SKC,0.58,VWS V14.00,2013-11-02 06:47:00,
2013-11-01 23:49:00,30.4,20.8,30.00,South,180,0.0,0.0,67,0.00,,SKC,0.58,VWS V14.00,2013-11-02 06:49:00,
2013-11-01 23:50:00,30.2,21.0,30.00,South,180,0.0,0.0,68,0.00,,SKC,0.58,VWS V14.00,2013-11-02 06:50:00,
2013-11-01 23:52:00,30.1,20.8,30.00,South,180,0.0,0.0,68,0.00,,SKC,0.58,VWS V14.00,2013-11-02 06:52:00,
2013-11-01 23:53:00,30.1,20.8,30.00,South,180,0.0,0.0,68,0.00,,SKC,0.58,VWS V14.00,2013-11-02 06:53:00,
2013-11-01 23:54:00,30.1,20.8,30.00,WSW,248,1.1,1.1,68,0.00,,SKC,0.58,VWS V14.00,2013-11-02 06:54:00,
2013-11-01 23:55:00,30.1,20.8,30.00,WSW,248,0.0,0.0,68,0.00,,SKC,0.58,VWS V14.00,2013-11-02 06:55:00,
2013-11-01 23:57:00,30.1,20.8,30.00,WSW,248,1.1,1.1,68,0.00,,SKC,0.58,VWS V14.00,2013-11-02 06:57:00,
2013-11-01 23:58:00,30.1,20.8,30.00,WSW,248,0.0,0.0,68,0.00,,SKC,0.58,VWS V14.00,2013-11-02 06:58:00,
2013-11-01 23:59:00,30.1,21.1,30.00,WSW,248,0.0,0.0,69,0.00,,SKC,0.58,VWS V14.00,2013-11-02 06:59:00,